FW4770 Weather Reports


Display with metric or nautical units.
time (UTC)temp
F
wind
direction
speed
MPH
gust
MPH
rain 1hr
in
rain 24hr
in
rain mn
in
humidity
%
barometer
mb
20260904181857 76 96 6.0 10.0 0.00 0.00 0.00 87 1014.1
20260904181821 76 84 6.0 10.0 0.00 0.00 0.00 87 1014.1
20260904181704 76 78 7.0 10.0 0.00 0.00 0.00 87 1014.1
20260904181612 76 70 6.0 10.0 0.00 0.00 0.00 87 1014.1
20260904181457 75 63 5.0 10.0 0.00 0.00 0.00 87 1014.1
20260904181420 75 149 5.0 10.0 0.00 0.00 0.00 87 1014.1
20260904181258 75 101 8.0 10.0 0.00 0.00 0.00 87 1014.1
20260904181203 75 87 6.0 10.0 0.00 0.00 0.00 88 1014.1
20260904181108 75 102 5.0 10.0 0.00 0.00 0.00 88 1014.1
20260904180957 75 84 4.0 10.0 0.00 0.00 0.00 87 1014.1
20260904180901 75 96 6.0 10.0 0.00 0.00 0.00 87 1014.1
20260904180806 75 111 7.0 10.0 0.00 0.00 0.00 87 1014.2
20260904180709 75 105 6.0 10.0 0.00 0.00 0.00 87 1014.1
20260904180611 75 106 5.0 10.0 0.00 0.00 0.00 88 1014.1
20260904180500 74 110 3.0 10.0 0.00 0.00 0.00 88 1014.2
20260904180403 74 133 4.0 10.0 0.00 0.00 0.00 88 1014.1
20260904180308 74 82 5.0 10.0 0.00 0.00 0.00 88 1014.1
20260904180233 74 88 6.0 10.0 0.00 0.00 0.00 89 1014.1
20260904180116 74 88 6.0 13.0 0.00 0.00 0.00 88 1014.1
20260904180041 74 118 6.0 13.0 0.00 0.00 0.00 89 1014.2
20260904175858 74 102 6.0 13.0 0.00 0.00 0.00 89 1014.3
20260904175807 74 107 7.0 13.0 0.00 0.00 0.00 89 1014.3
20260904175712 74 99 6.0 13.0 0.00 0.00 0.00 89 1014.2
20260904175616 73 107 6.0 13.0 0.00 0.00 0.00 89 1014.1
20260904175541 73 113 7.0 13.0 0.00 0.00 0.00 89 1014.3
20260904175358 73 94 9.0 13.0 0.00 0.00 0.00 89 1014.3
20260904175301 73 93 8.0 13.0 0.00 0.00 0.00 90 1014.3
20260904175205 73 111 8.0 12.0 0.00 0.00 0.00 89 1014.3
20260904175113 73 106 9.0 12.0 0.00 0.00 0.00 89 1014.3
20260904175018 73 107 9.0 12.0 0.00 0.00 0.00 89 1014.3
20260904174856 73 115 9.0 13.0 0.00 0.00 0.00 89 1014.3
20260904174801 73 116 8.0 13.0 0.00 0.00 0.00 89 1014.3
20260904174726 73 124 8.0 13.0 0.00 0.00 0.00 89 1014.3
20260904174610 73 121 8.0 13.0 0.00 0.00 0.00 90 1014.3
20260904174518 73 146 8.0 13.0 0.00 0.00 0.00 90 1014.2
20260904174356 73 121 8.0 13.0 0.00 0.00 0.00 90 1014.2
20260904174320 73 125 9.0 13.0 0.00 0.00 0.00 89 1014.2
20260904174158 73 93 10.0 13.0 0.00 0.00 0.00 89 1014.3
20260904174103 73 128 9.0 13.0 0.00 0.00 0.00 89 1014.3
20260904174028 73 141 8.0 13.0 0.00 0.00 0.00 89 1014.3
20260904173856 74 144 8.0 13.0 0.00 0.00 0.00 89 1014.3
20260904173759 74 128 9.0 13.0 0.00 0.00 0.00 90 1014.3
20260904173703 74 102 9.0 13.0 0.00 0.00 0.00 90 1014.3
20260904173608 74 115 9.0 13.0 0.00 0.00 0.00 90 1014.3
20260904173513 74 114 8.0 13.0 0.00 0.00 0.00 90 1014.3
20260904173418 74 98 8.0 13.0 0.00 0.00 0.00 90 1014.2
20260904173322 74 92 10.0 13.0 0.00 0.00 0.00 90 1014.3
20260904173209 74 85 10.0 13.0 0.00 0.00 0.00 90 1014.3
20260904173114 74 103 10.0 12.0 0.00 0.00 0.00 90 1014.2
20260904173018 74 113 8.0 12.0 0.00 0.00 0.00 91 1014.1
20260904172856 73 104 7.0 12.0 0.00 0.00 0.00 91 1014.2
20260904172821 73 128 7.0 12.0 0.00 0.00 0.00 91 1014.1
20260904172705 73 117 7.0 14.0 0.00 0.00 0.00 92 1014.1
20260904172630 73 114 7.0 14.0 0.00 0.00 0.00 91 1014.1
20260904172517 73 87 7.0 14.0 0.00 0.00 0.00 92 1014.1
20260904172420 73 93 7.0 14.0 0.00 0.00 0.00 91 1014.1
20260904172257 73 92 8.0 15.0 0.00 0.00 0.00 92 1014.0
20260904172202 73 107 9.0 15.0 0.00 0.00 0.00 92 1014.1
20260904172127 73 89 9.0 15.0 0.00 0.00 0.00 92 1014.0
20260904172011 73 46 10.0 15.0 0.00 0.00 0.00 91 1014.0
20260904171935 73 94 10.0 15.0 0.00 0.00 0.00 91 1014.1
20260904171819 73 90 11.0 15.0 0.00 0.00 0.00 91 1014.1
20260904171707 73 101 11.0 15.0 0.00 0.00 0.00 91 1014.1
20260904171612 73 88 11.0 15.0 0.00 0.00 0.00 91 1014.0
20260904171456 73 96 10.0 13.0 0.00 0.00 0.00 92 1014.0
20260904171401 73 76 10.0 13.0 0.00 0.00 0.00 91 1014.0
20260904171306 73 95 9.0 13.0 0.00 0.00 0.00 92 1014.0
20260904171211 73 105 10.0 13.0 0.00 0.00 0.00 92 1014.0
20260904171058 73 92 9.0 13.0 0.00 0.00 0.00 92 1014.0
20260904171003 73 107 9.0 11.0 0.00 0.00 0.00 92 1013.9
20260904170907 73 96 8.0 11.0 0.00 0.00 0.00 92 1013.9
20260904170812 74 90 8.0 11.0 0.00 0.00 0.00 93 1013.9
20260904170656 73 96 7.0 11.0 0.00 0.00 0.00 93 1013.8
20260904170621 73 111 7.0 11.0 0.00 0.00 0.00 93 1013.8
20260904170509 74 94 7.0 11.0 0.00 0.00 0.00 93 1013.8
20260904170433 74 117 7.0 10.0 0.00 0.00 0.00 93 1013.8
20260904170257 74 128 7.0 11.0 0.00 0.00 0.00 93 1013.8
20260904170202 74 131 7.0 11.0 0.00 0.00 0.00 93 1013.8
20260904170106 74 97 7.0 11.0 0.00 0.00 0.00 93 1013.9
20260904170031 73 105 6.0 11.0 0.00 0.00 0.00 93 1013.9
20260904165934 73 116 6.0 11.0 0.00 0.00 0.00 93 1013.8
20260904165822 73 126 6.0 11.0 0.00 0.00 0.00 93 1013.8
20260904165706 73 96 7.0 11.0 0.00 0.00 0.00 93 1013.8
20260904165611 73 124 8.0 11.0 0.00 0.00 0.00 93 1013.8
20260904165516 73 109 8.0 11.0 0.00 0.00 0.00 93 1013.8
20260904165440 73 113 8.0 12.0 0.00 0.00 0.00 94 1013.8
20260904165344 73 132 8.0 12.0 0.00 0.00 0.00 94 1013.8
20260904165200 73 111 7.0 12.0 0.00 0.00 0.00 94 1013.8
20260904165125 73 70 8.0 12.0 0.00 0.00 0.00 94 1013.8
20260904165033 73 117 8.0 12.0 0.00 0.00 0.00 94 1013.8
20260904164857 73 119 7.0 12.0 0.00 0.00 0.00 94 1013.8
20260904164822 73 111 8.0 12.0 0.00 0.00 0.00 94 1013.8
20260904164706 73 109 9.0 12.0 0.00 0.00 0.00 94 1013.8
20260904164611 73 101 8.0 12.0 0.00 0.00 0.00 94 1013.8
20260904164515 73 114 7.0 11.0 0.00 0.00 0.00 94 1013.8
20260904164404 73 79 7.0 11.0 0.00 0.00 0.00 94 1013.8
20260904164309 73 117 8.0 11.0 0.00 0.00 0.00 94 1013.8
20260904164214 73 106 9.0 11.0 0.00 0.00 0.00 94 1013.7
20260904164119 73 99 8.0 11.0 0.00 0.00 0.00 94 1013.8
20260904163956 73 108 7.0 11.0 0.00 0.00 0.00 94 1013.9
20260904163901 73 121 8.0 12.0 0.00 0.00 0.00 94 1013.9
20260904163810 73 101 8.0 12.0 0.00 0.00 0.00 94 1013.9
20260904163735 73 110 8.0 12.0 0.00 0.00 0.00 94 1013.9
20260904163559 73 104 8.0 12.0 0.00 0.00 0.00 94 1013.8
20260904163524 73 76 7.0 12.0 0.00 0.00 0.00 94 1013.7
20260904163408 73 96 7.0 12.0 0.00 0.00 0.00 94 1013.7
20260904163313 73 126 7.0 12.0 0.00 0.00 0.00 94 1013.8
20260904163217 73 119 8.0 12.0 0.00 0.00 0.00 94 1013.7
20260904163104 73 118 8.0 12.0 0.00 0.00 0.00 94 1013.6
20260904163029 74 134 8.0 12.0 0.00 0.00 0.00 95 1013.6
20260904162913 74 109 8.0 12.0 0.00 0.00 0.00 94 1013.6
20260904162818 74 93 8.0 12.0 0.00 0.00 0.00 95 1013.6
20260904162656 74 118 6.0 12.0 0.00 0.00 0.00 95 1013.7
20260904162601 74 100 5.0 10.0 0.00 0.00 0.00 95 1013.6
20260904162506 74 130 6.0 10.0 0.00 0.00 0.00 95 1013.7
20260904162415 74 102 5.0 10.0 0.00 0.00 0.00 95 1013.7
20260904162320 74 135 6.0 10.0 0.00 0.00 0.00 94 1013.6
20260904162157 74 127 8.0 10.0 0.00 0.00 0.00 95 1013.5
20260904162102 74 110 6.0 10.0 0.00 0.00 0.00 95 1013.5
20260904162005 74 93 6.0 11.0 0.00 0.00 0.00 95 1013.5
20260904161909 74 91 7.0 11.0 0.00 0.00 0.00 95 1013.5
20260904161818 74 105 8.0 12.0 0.00 0.00 0.00 95 1013.4
20260904161656 74 109 8.0 12.0 0.00 0.00 0.00 95 1013.4
20260904161559 74 103 8.0 12.0 0.00 0.00 0.00 95 1013.4
20260904161524 74 113 8.0 12.0 0.00 0.00 0.00 95 1013.3
20260904161407 74 130 7.0 12.0 0.00 0.00 0.00 95 1013.3
20260904161312 74 107 7.0 12.0 0.00 0.00 0.00 95 1013.2
20260904161220 74 115 7.0 12.0 0.00 0.00 0.00 95 1013.3
20260904161058 74 119 9.0 12.0 0.00 0.00 0.00 95 1013.2
20260904161002 74 99 8.0 12.0 0.00 0.00 0.00 95 1013.2
20260904160906 74 115 7.0 12.0 0.00 0.00 0.00 95 1013.3
20260904160810 74 113 7.0 10.0 0.00 0.00 0.00 95 1013.3
20260904160715 74 123 7.0 10.0 0.00 0.00 0.00 95 1013.3
20260904160603 74 114 7.0 10.0 0.00 0.00 0.00 95 1013.3
20260904160508 74 115 6.0 10.0 0.00 0.00 0.00 95 1013.3
20260904160433 74 108 6.0 10.0 0.00 0.00 0.00 95 1013.3
20260904160257 74 100 6.0 10.0 0.00 0.00 0.00 95 1013.3
20260904160222 74 115 6.0 10.0 0.00 0.00 0.00 95 1013.3
20260904160100 74 107 6.0 10.0 0.00 0.00 0.00 94 1013.3
20260904160009 74 110 6.0 10.0 0.00 0.00 0.00 94 1013.3
20260904155912 74 107 7.0 10.0 0.00 0.00 0.00 94 1013.4
20260904155756 74 88 7.0 10.0 0.00 0.00 0.00 94 1013.3
20260904155701 74 109 7.0 10.0 0.00 0.00 0.00 94 1013.3
20260904155606 74 105 6.0 10.0 0.00 0.00 0.00 94 1013.3
20260904155511 74 78 5.0 9.0 0.00 0.00 0.00 94 1013.3
20260904155400 74 95 5.0 9.0 0.00 0.00 0.00 94 1013.3
20260904155307 74 96 5.0 9.0 0.00 0.00 0.00 94 1013.3
20260904155209 74 56 6.0 9.0 0.00 0.00 0.00 94 1013.3
20260904155114 74 98 6.0 9.0 0.00 0.00 0.00 94 1013.3
20260904154959 74 109 6.0 9.0 0.00 0.00 0.00 94 1013.3
20260904154904 74 94 7.0 9.0 0.00 0.00 0.00 94 1013.2
20260904154812 74 86 7.0 9.0 0.00 0.00 0.00 94 1013.2
20260904154657 74 97 6.0 9.0 0.00 0.00 0.00 94 1013.2
20260904154622 74 81 5.0 9.0 0.00 0.00 0.00 94 1013.2
20260904154459 74 37 3.0 9.0 0.00 0.00 0.00 94 1013.2
20260904154404 74 99 3.0 9.0 0.00 0.00 0.00 94 1013.2
20260904154309 74 99 4.0 9.0 0.00 0.00 0.00 94 1013.2
20260904154158 74 94 4.0 9.0 0.00 0.00 0.00 94 1013.1
20260904154103 74 99 6.0 9.0 0.00 0.00 0.00 94 1013.1
20260904154007 74 96 7.0 9.0 0.00 0.00 0.00 94 1013.1
20260904153912 74 92 7.0 8.0 0.00 0.00 0.00 94 1013.1
20260904153757 74 111 6.0 9.0 0.00 0.00 0.00 94 1013.2
20260904153702 74 106 4.0 9.0 0.00 0.00 0.00 94 1013.2
20260904153611 74 133 4.0 9.0 0.00 0.00 0.00 94 1013.2
20260904153536 74 116 5.0 9.0 0.00 0.00 0.00 94 1013.1
20260904153419 74 102 6.0 9.0 0.00 0.00 0.00 94 1013.1
20260904153323 74 108 5.0 9.0 0.00 0.00 0.00 93 1013.0
20260904153207 74 104 6.0 9.0 0.00 0.00 0.00 93 1013.0
20260904153111 74 99 6.0 9.0 0.00 0.00 0.00 93 1013.0
20260904152956 74 97 7.0 9.0 0.00 0.00 0.00 93 1013.0
20260904152905 74 96 7.0 9.0 0.00 0.00 0.00 93 1013.0
20260904152807 74 93 6.0 9.0 0.00 0.00 0.00 93 1013.0
20260904152712 74 104 4.0 9.0 0.00 0.00 0.00 93 1013.0
20260904152617 74 98 4.0 9.0 0.00 0.00 0.00 93 1012.9
20260904152501 74 98 6.0 9.0 0.00 0.00 0.00 93 1013.0
20260904152426 74 106 6.0 9.0 0.00 0.00 0.00 93 1012.9
20260904152310 74 92 7.0 9.0 0.00 0.00 0.00 93 1012.9
20260904152158 74 99 6.0 9.0 0.00 0.00 0.00 93 1012.9
20260904152103 74 88 7.0 9.0 0.00 0.00 0.00 93 1012.8
20260904152007 74 103 7.0 9.0 0.00 0.00 0.00 93 1012.8
20260904151912 74 94 7.0 9.0 0.00 0.00 0.00 93 1012.9
20260904151757 74 94 7.0 9.0 0.00 0.00 0.00 93 1012.7
20260904151700 75 94 6.0 9.0 0.00 0.00 0.00 93 1012.7
20260904151609 75 115 6.0 9.0 0.00 0.00 0.00 93 1012.7
20260904151514 75 113 6.0 9.0 0.00 0.00 0.00 93 1012.7
20260904151359 75 109 5.0 9.0 0.00 0.00 0.00 93 1012.7
20260904151304 74 85 5.0 9.0 0.00 0.00 0.00 93 1012.7
20260904151228 74 115 5.0 9.0 0.00 0.00 0.00 93 1012.7
20260904151112 74 119 5.0 9.0 0.00 0.00 0.00 93 1012.7
20260904151001 74 93 5.0 8.0 0.00 0.00 0.00 93 1012.6
20260904150906 74 94 6.0 8.0 0.00 0.00 0.00 93 1012.7
20260904150810 74 93 5.0 8.0 0.00 0.00 0.00 93 1012.7
20260904150715 74 97 5.0 8.0 0.00 0.00 0.00 93 1012.6
20260904150619 74 122 5.0 8.0 0.00 0.00 0.00 94 1012.6
20260904150503 74 101 4.0 6.0 0.00 0.00 0.00 94 1012.6
20260904150412 74 119 5.0 6.0 0.00 0.00 0.00 94 1012.6
20260904150256 74 110 4.0 7.0 0.00 0.00 0.00 94 1012.6
20260904150221 74 111 3.0 7.0 0.00 0.00 0.00 94 1012.6
20260904150104 74 111 3.0 7.0 0.00 0.00 0.00 94 1012.6
20260904150009 74 111 3.0 7.0 0.00 0.00 0.00 94 1012.6
20260904145913 74 112 3.0 7.0 0.00 0.00 0.00 94 1012.6
20260904145818 74 112 3.0 7.0 0.00 0.00 0.00 94 1012.5
20260904145725 74 113 4.0 7.0 0.00 0.00 0.00 94 1012.6
20260904145609 74 113 4.0 7.0 0.00 0.00 0.00 94 1012.6
20260904145514 74 99 3.0 7.0 0.00 0.00 0.00 95 1012.5
20260904145358 74 111 3.0 4.0 0.00 0.00 0.00 95 1012.5
20260904145305 74 112 2.0 4.0 0.00 0.00 0.00 95 1012.6
20260904145207 74 112 2.0 4.0 0.00 0.00 0.00 95 1012.6
20260904145056 74 112 2.0 4.0 0.00 0.00 0.00 95 1012.5
20260904145001 74 136 1.0 4.0 0.00 0.00 0.00 95 1012.5
20260904144906 74 136 2.0 4.0 0.00 0.00 0.00 95 1012.5
20260904144830 74 136 2.0 4.0 0.00 0.00 0.00 95 1012.5
20260904144714 74 136 2.0 4.0 0.00 0.00 0.00 95 1012.5
20260904144559 74 136 3.0 4.0 0.00 0.00 0.00 95 1012.5
20260904144507 74 136 3.0 4.0 0.00 0.00 0.00 95 1012.5
20260904144412 74 137 2.0 4.0 0.00 0.00 0.00 95 1012.5
20260904144257 73 150 1.0 5.0 0.00 0.00 0.00 95 1012.4
20260904144202 73 150 1.0 5.0 0.00 0.00 0.00 95 1012.3
20260904144127 73 150 2.0 5.0 0.00 0.00 0.00 96 1012.3
20260904144011 73 150 2.0 5.0 0.00 0.00 0.00 95 1012.3
20260904143859 73 150 2.0 5.0 0.00 0.00 0.00 96 1012.4
20260904143803 73 198 1.0 5.0 0.00 0.00 0.00 96 1012.4
20260904143708 73 199 1.0 5.0 0.00 0.00 0.00 96 1012.4
20260904143613 73 199 1.0 5.0 0.00 0.00 0.00 96 1012.3
20260904143518 73 199 2.0 5.0 0.00 0.00 0.00 96 1012.3
20260904143401 73 199 3.0 5.0 0.00 0.00 0.00 96 1012.2
20260904143326 73 199 4.0 6.0 0.00 0.00 0.00 96 1012.2
20260904143209 73 199 4.0 6.0 0.00 0.00 0.00 96 1012.2
20260904143058 73 199 4.0 6.0 0.00 0.00 0.00 96 1012.2
20260904143003 73 207 4.0 6.0 0.00 0.00 0.00 96 1012.2
20260904142927 73 209 3.0 6.0 0.00 0.00 0.00 96 1012.2
20260904142811 73 209 3.0 6.0 0.00 0.00 0.00 96 1012.2
20260904142656 73 209 3.0 6.0 0.00 0.00 0.00 96 1012.2
20260904142600 73 203 4.0 6.0 0.00 0.00 0.00 96 1012.1
20260904142509 73 202 4.0 6.0 0.00 0.00 0.00 97 1012.1
20260904142414 73 195 4.0 6.0 0.00 0.00 0.00 97 1012.1
20260904142258 73 188 4.0 6.0 0.00 0.00 0.00 97 1012.0
20260904142204 72 188 4.0 6.0 0.00 0.00 0.00 97 1012.0
20260904142109 72 183 4.0 6.0 0.00 0.00 0.00 97 1012.0
20260904142034 72 186 4.0 6.0 0.00 0.00 0.00 97 1012.1
20260904141901 72 188 4.0 6.0 0.00 0.00 0.00 97 1012.0
20260904141805 72 185 4.0 6.0 0.00 0.00 0.00 97 1012.0
20260904141710 72 178 4.0 6.0 0.00 0.00 0.00 97 1012.0
20260904141615 72 173 4.0 5.0 0.00 0.00 0.00 97 1012.1
20260904141540 72 171 3.0 4.0 0.00 0.00 0.00 97 1012.0
20260904141443 72 171 3.0 6.0 0.00 0.00 0.00 97 1012.0
20260904141300 72 170 2.0 6.0 0.00 0.00 0.00 97 1012.0
20260904141209 72 171 2.0 6.0 0.00 0.00 0.00 97 1012.0
20260904141114 72 171 2.0 6.0 0.00 0.00 0.00 97 1012.0
20260904141019 72 171 4.0 6.0 0.00 0.00 0.00 97 1011.9
20260904140923 72 171 4.0 6.0 0.00 0.00 0.00 97 1011.9
20260904140806 72 167 4.0 6.0 0.00 0.00 0.00 97 1011.9
20260904140711 72 166 4.0 6.0 0.00 0.00 0.00 97 1011.9
20260904140615 72 165 2.0 5.0 0.00 0.00 0.00 97 1012.0
20260904140504 71 153 1.0 3.0 0.00 0.00 0.00 97 1012.0
20260904140409 71 153 1.0 3.0 0.00 0.00 0.00 97 1012.0
20260904140313 71 153 2.0 3.0 0.00 0.00 0.00 97 1012.1
20260904140159 71 153 1.0 3.0 0.00 0.00 0.00 97 1012.1
20260904140008 71 153 2.0 3.0 0.00 0.00 0.00 97 1012.1
20260904135856 71 153 2.0 3.0 0.00 0.00 0.00 97 1012.2
20260904135801 71 153 1.0 3.0 0.00 0.00 0.00 97 1012.1
20260904135706 71 153 2.0 3.0 0.00 0.00 0.00 97 1012.1
20260904135631 71 153 2.0 3.0 0.00 0.00 0.00 97 1012.1
20260904135535 70 153 2.0 3.0 0.00 0.00 0.00 97 1012.1
20260904135358 70 153 0.0 3.0 0.00 0.00 0.00 97 1012.1
20260904135306 70 90 0.0 2.0 0.00 0.00 0.00 97 1012.2
20260904135212 70 90 0.0 2.0 0.00 0.00 0.00 97 1012.2
20260904135057 70 90 0.0 2.0 0.00 0.00 0.00 97 1012.2
20260904135002 70 90 0.0 2.0 0.00 0.00 0.00 97 1012.2
20260904134907 70 90 0.0 2.0 0.00 0.00 0.00 97 1012.2
20260904134812 70 90 0.0 2.0 0.00 0.00 0.00 97 1012.1
20260904134717 70 90 1.0 2.0 0.00 0.00 0.00 97 1012.2
20260904134605 70 90 1.0 2.0 0.00 0.00 0.00 97 1012.1
20260904134509 70 90 1.0 2.0 0.00 0.00 0.00 97 1012.1
20260904134415 70 90 1.0 2.0 0.00 0.00 0.00 97 1012.1
20260904134320 70 90 0.0 2.0 0.00 0.00 0.00 97 1012.1
20260904134157 70 90 1.0 2.0 0.00 0.00 0.00 96 1012.1
20260904134101 70 90 1.0 2.0 0.00 0.00 0.00 96 1012.2
20260904134008 70 90 1.0 3.0 0.00 0.00 0.00 96 1012.2
20260904133934 69 90 1.0 3.0 0.00 0.00 0.00 96 1012.2
20260904133818 69 90 1.0 3.0 0.00 0.00 0.00 96 1012.1
20260904133702 69 90 0.0 3.0 0.00 0.00 0.00 96 1012.1
20260904133606 69 90 0.0 3.0 0.00 0.00 0.00 96 1012.2
20260904133511 69 90 1.0 3.0 0.00 0.00 0.00 96 1012.2
20260904133400 69 90 1.0 3.0 0.00 0.00 0.00 96 1012.2
20260904133305 69 90 2.0 4.0 0.00 0.00 0.00 96 1012.2
20260904133229 69 90 2.0 4.0 0.00 0.00 0.00 96 1012.2
20260904133113 69 90 2.0 4.0 0.00 0.00 0.00 96 1012.2
20260904133018 69 90 2.0 4.0 0.00 0.00 0.00 96 1012.2
20260904132922 69 90 2.0 4.0 0.00 0.00 0.00 96 1012.2
20260904132759 69 90 2.0 4.0 0.00 0.00 0.00 96 1012.3
20260904132709 69 90 2.0 5.0 0.00 0.00 0.00 96 1012.3
20260904132613 69 90 2.0 6.0 0.00 0.00 0.00 96 1012.2
20260904132517 69 90 2.0 6.0 0.00 0.00 0.00 96 1012.2
20260904132443 69 90 2.0 6.0 0.00 0.00 0.00 96 1012.3
20260904132300 69 74 2.0 6.0 0.00 0.00 0.00 96 1012.3
20260904132204 69 74 2.0 6.0 0.00 0.00 0.00 96 1012.3
20260904132109 69 74 2.0 6.0 0.00 0.00 0.00 96 1012.3
20260904132018 69 74 3.0 6.0 0.00 0.00 0.00 96 1012.2
20260904131902 69 74 4.0 6.0 0.00 0.00 0.00 96 1012.3
20260904131806 69 67 4.0 6.0 0.00 0.00 0.00 96 1012.3
20260904131711 70 86 3.0 6.0 0.00 0.00 0.00 96 1012.3
20260904131556 70 87 3.0 6.0 0.00 0.00 0.00 96 1012.2
20260904131500 70 88 4.0 6.0 0.00 0.00 0.00 96 1012.2
20260904131409 70 94 4.0 6.0 0.00 0.00 0.00 96 1012.2
20260904131314 70 94 3.0 7.0 0.00 0.00 0.00 96 1012.2
20260904131159 70 107 4.0 7.0 0.00 0.00 0.00 96 1012.1
20260904131103 70 108 3.0 7.0 0.00 0.00 0.00 96 1012.2
20260904131006 70 112 3.0 7.0 0.00 0.00 0.00 96 1012.1
20260904130930 70 110 4.0 7.0 0.00 0.00 0.00 96 1012.1
20260904130759 70 111 4.0 7.0 0.00 0.00 0.00 96 1012.1
20260904130703 70 115 4.0 7.0 0.00 0.00 0.00 96 1012.2
20260904130608 70 95 5.0 7.0 0.00 0.00 0.00 96 1012.2
20260904130513 70 101 5.0 7.0 0.00 0.00 0.00 96 1012.1
20260904130358 70 93 5.0 7.0 0.00 0.00 0.00 96 1012.1
20260904130303 70 95 5.0 7.0 0.00 0.00 0.00 96 1012.1
20260904130212 70 101 4.0 7.0 0.00 0.00 0.00 96 1012.1
20260904130057 70 93 3.0 6.0 0.00 0.00 0.00 96 1012.1
20260904130001 70 105 3.0 6.0 0.00 0.00 0.00 96 1012.1
20260904125906 70 105 3.0 8.0 0.00 0.00 0.00 96 1012.1
20260904125810 70 88 3.0 8.0 0.00 0.00 0.00 96 1012.1
20260904125659 70 94 3.0 8.0 0.00 0.00 0.00 96 1012.1
20260904125604 70 89 3.0 8.0 0.00 0.00 0.00 96 1012.1
20260904125509 70 86 2.0 8.0 0.00 0.00 0.00 96 1012.1
20260904125414 70 86 2.0 8.0 0.00 0.00 0.00 96 1012.1
20260904125319 70 85 3.0 8.0 0.00 0.00 0.00 96 1012.1
20260904125243 70 84 4.0 8.0 0.00 0.00 0.00 95 1012.1
20260904125059 70 82 5.0 8.0 0.00 0.00 0.00 95 1012.0
20260904125009 70 81 5.0 8.0 0.00 0.00 0.00 95 1012.0
20260904124914 70 60 4.0 8.0 0.00 0.00 0.00 95 1012.0
20260904124758 70 85 4.0 7.0 0.00 0.00 0.00 95 1011.9
20260904124702 70 85 3.0 7.0 0.00 0.00 0.00 95 1011.9
20260904124605 70 90 3.0 7.0 0.00 0.00 0.00 95 1011.9
20260904124508 70 77 4.0 7.0 0.00 0.00 0.00 95 1011.9
20260904124418 70 76 4.0 7.0 0.00 0.00 0.00 95 1011.9
20260904124343 70 65 3.0 6.0 0.00 0.00 0.00 95 1011.9
20260904124200 70 111 3.0 6.0 0.00 0.00 0.00 96 1011.9
20260904124125 70 112 3.0 6.0 0.00 0.00 0.00 96 1011.9
20260904124008 70 112 4.0 6.0 0.00 0.00 0.00 96 1011.9
20260904123914 70 113 4.0 6.0 0.00 0.00 0.00 96 1012.0
20260904123758 70 115 3.0 6.0 0.00 0.00 0.00 96 1011.8
20260904123705 70 119 2.0 4.0 0.00 0.00 0.00 96 1011.8
20260904123610 70 119 2.0 4.0 0.00 0.00 0.00 96 1011.8
20260904123515 70 120 2.0 4.0 0.00 0.00 0.00 96 1011.7
20260904123420 70 120 2.0 4.0 0.00 0.00 0.00 96 1011.7
20260904123303 70 120 2.0 4.0 0.00 0.00 0.00 96 1011.6
20260904123208 70 119 2.0 4.0 0.00 0.00 0.00 95 1011.6
20260904123056 70 119 3.0 4.0 0.00 0.00 0.00 96 1011.7
20260904123001 70 119 3.0 4.0 0.00 0.00 0.00 96 1011.6
20260904122905 70 119 3.0 4.0 0.00 0.00 0.00 96 1011.7
20260904122810 70 119 3.0 4.0 0.00 0.00 0.00 95 1011.7
20260904122713 70 119 3.0 4.0 0.00 0.00 0.00 95 1011.7
20260904122558 70 120 3.0 4.0 0.00 0.00 0.00 96 1011.5
20260904122503 70 119 3.0 6.0 0.00 0.00 0.00 96 1011.6
20260904122411 70 121 3.0 6.0 0.00 0.00 0.00 96 1011.6
20260904122256 70 121 3.0 6.0 0.00 0.00 0.00 96 1011.5
20260904122221 70 121 3.0 6.0 0.00 0.00 0.00 96 1011.5
20260904122059 70 124 3.0 6.0 0.00 0.00 0.00 96 1011.4
20260904122004 70 125 3.0 6.0 0.00 0.00 0.00 96 1011.4
20260904121908 70 123 3.0 6.0 0.00 0.00 0.00 96 1011.4
20260904121757 70 123 4.0 6.0 0.00 0.00 0.00 96 1011.4
20260904121721 70 120 3.0 6.0 0.00 0.00 0.00 96 1011.4
20260904121600 70 127 3.0 5.0 0.00 0.00 0.00 96 1011.4
20260904121505 70 128 3.0 5.0 0.00 0.00 0.00 96 1011.4
20260904121409 70 128 3.0 5.0 0.00 0.00 0.00 96 1011.4
20260904121258 70 134 2.0 5.0 0.00 0.00 0.00 96 1011.3
20260904121202 70 134 2.0 5.0 0.00 0.00 0.00 96 1011.4
20260904121108 70 135 2.0 5.0 0.00 0.00 0.00 96 1011.4
20260904121013 70 135 3.0 5.0 0.00 0.00 0.00 96 1011.3
20260904120858 70 135 3.0 5.0 0.00 0.00 0.00 96 1011.4
20260904120802 70 136 2.0 4.0 0.00 0.00 0.00 96 1011.4
20260904120711 70 136 2.0 4.0 0.00 0.00 0.00 96 1011.4
20260904120636 70 136 2.0 4.0 0.00 0.00 0.00 96 1011.4
20260904120519 70 136 3.0 4.0 0.00 0.00 0.00 96 1011.4
20260904120356 70 138 3.0 4.0 0.00 0.00 0.00 96 1011.3
20260904120301 70 138 2.0 4.0 0.00 0.00 0.00 96 1011.4
20260904120226 70 138 2.0 4.0 0.00 0.00 0.00 96 1011.3
20260904120110 70 138 3.0 4.0 0.00 0.00 0.00 96 1011.3
20260904120017 70 138 3.0 4.0 0.00 0.00 0.00 96 1011.4
20260904115856 70 139 3.0 4.0 0.00 0.00 0.00 96 1011.3
20260904115821 70 139 3.0 4.0 0.00 0.00 0.00 96 1011.3
20260904115658 70 143 2.0 3.0 0.00 0.00 0.00 96 1011.3
20260904115603 70 143 2.0 3.0 0.00 0.00 0.00 96 1011.3
20260904115507 70 143 2.0 3.0 0.00 0.00 0.00 96 1011.2
20260904115415 70 143 2.0 3.0 0.00 0.00 0.00 96 1011.2
20260904115259 70 143 2.0 3.0 0.00 0.00 0.00 96 1011.2
20260904115205 70 143 1.0 3.0 0.00 0.00 0.00 96 1011.2
20260904115110 70 143 1.0 2.0 0.00 0.00 0.00 96 1011.2
20260904115014 70 143 1.0 2.0 0.00 0.00 0.00 96 1011.2
20260904114920 70 143 1.0 4.0 0.00 0.00 0.00 96 1011.2
20260904114807 70 143 0.0 4.0 0.00 0.00 0.00 96 1011.2
20260904114711 70 143 1.0 4.0 0.00 0.00 0.00 96 1011.1
20260904114556 70 143 1.0 4.0 0.00 0.00 0.00 96 1011.1
20260904114521 70 143 1.0 4.0 0.00 0.00 0.00 96 1011.1
20260904114359 70 143 1.0 4.0 0.00 0.00 0.00 96 1011.2
20260904114303 70 143 2.0 4.0 0.00 0.00 0.00 96 1011.1
20260904114227 70 143 3.0 4.0 0.00 0.00 0.00 96 1011.1
20260904114115 70 143 3.0 6.0 0.00 0.00 0.00 96 1011.2
20260904114020 70 144 2.0 6.0 0.00 0.00 0.00 96 1011.1
20260904113924 70 145 1.0 6.0 0.00 0.00 0.00 96 1011.1
20260904113827 70 145 1.0 6.0 0.00 0.00 0.00 96 1011.1
20260904113712 70 145 1.0 6.0 0.00 0.00 0.00 96 1011.1
20260904113617 70 145 2.0 6.0 0.00 0.00 0.00 96 1011.1
20260904113521 70 145 2.0 6.0 0.00 0.00 0.00 96 1011.1
20260904113405 70 145 3.0 6.0 0.00 0.00 0.00 96 1011.0
20260904113314 70 145 3.0 6.0 0.00 0.00 0.00 96 1011.0
20260904113239 70 157 3.0 5.0 0.00 0.00 0.00 96 1011.0
20260904113055 70 158 2.0 5.0 0.00 0.00 0.00 96 1010.9
20260904113021 70 158 2.0 5.0 0.00 0.00 0.00 96 1010.9
20260904112858 70 159 2.0 5.0 0.00 0.00 0.00 96 1010.9
20260904112803 70 159 2.0 5.0 0.00 0.00 0.00 96 1010.9
20260904112707 70 158 2.0 5.0 0.00 0.00 0.00 96 1010.9
20260904112557 70 158 2.0 5.0 0.00 0.00 0.00 96 1011.0
20260904112502 70 158 3.0 5.0 0.00 0.00 0.00 96 1011.0
20260904112403 70 157 3.0 5.0 0.00 0.00 0.00 96 1010.9
20260904112309 70 146 2.0 5.0 0.00 0.00 0.00 96 1010.9
20260904112214 70 137 2.0 4.0 0.00 0.00 0.00 96 1010.9
20260904112103 70 137 2.0 4.0 0.00 0.00 0.00 96 1011.0
20260904112008 70 136 2.0 4.0 0.00 0.00 0.00 96 1011.0
20260904111912 70 136 2.0 4.0 0.00 0.00 0.00 96 1010.9
20260904111756 70 136 2.0 4.0 0.00 0.00 0.00 96 1010.9
20260904111701 70 136 2.0 4.0 0.00 0.00 0.00 96 1010.9
20260904111606 70 136 2.0 4.0 0.00 0.00 0.00 96 1010.9
20260904111510 70 133 2.0 4.0 0.00 0.00 0.00 96 1010.9
20260904111359 70 133 2.0 4.0 0.00 0.00 0.00 96 1011.0
20260904111304 70 133 2.0 4.0 0.00 0.00 0.00 96 1010.9
20260904111208 70 128 2.0 4.0 0.00 0.00 0.00 96 1010.9
20260904111113 70 127 1.0 4.0 0.00 0.00 0.00 96 1010.9
20260904110958 70 126 2.0 4.0 0.00 0.00 0.00 96 1011.0
20260904110906 70 126 2.0 4.0 0.00 0.00 0.00 96 1011.0
20260904110810 70 126 2.0 5.0 0.00 0.00 0.00 96 1011.0
20260904110714 70 127 2.0 5.0 0.00 0.00 0.00 96 1011.1
20260904110619 70 126 1.0 5.0 0.00 0.00 0.00 96 1011.0
20260904110457 70 126 0.0 5.0 0.00 0.00 0.00 96 1011.0
20260904110421 70 126 0.0 5.0 0.00 0.00 0.00 96 1011.0
20260904110259 70 126 1.0 5.0 0.00 0.00 0.00 96 1011.0
20260904110208 70 126 3.0 5.0 0.00 0.00 0.00 96 1011.0
20260904110113 70 126 4.0 7.0 0.00 0.00 0.00 96 1011.1
20260904105958 70 126 4.0 7.0 0.00 0.00 0.00 96 1011.1
20260904105902 70 113 4.0 7.0 0.00 0.00 0.00 96 1011.2
20260904105807 70 138 3.0 7.0 0.00 0.00 0.00 96 1011.2
20260904105656 70 146 2.0 7.0 0.00 0.00 0.00 96 1011.1
20260904105601 70 148 2.0 7.0 0.00 0.00 0.00 96 1011.1
20260904105505 70 148 2.0 7.0 0.00 0.00 0.00 96 1011.1
20260904105410 70 152 3.0 7.0 0.00 0.00 0.00 96 1011.1
20260904105315 70 153 4.0 7.0 0.00 0.00 0.00 96 1011.1
20260904105220 70 132 3.0 5.0 0.00 0.00 0.00 96 1011.1
20260904105104 70 134 3.0 5.0 0.00 0.00 0.00 96 1011.1
20260904105012 70 132 3.0 5.0 0.00 0.00 0.00 96 1011.1
20260904104915 70 132 3.0 7.0 0.00 0.00 0.00 96 1011.1
20260904104800 70 134 3.0 9.0 0.00 0.00 0.00 96 1011.0
20260904104705 70 131 3.0 9.0 0.00 0.00 0.00 96 1011.0
20260904104610 70 143 2.0 9.0 0.00 0.00 0.00 96 1011.0
20260904104515 70 107 1.0 9.0 0.00 0.00 0.00 96 1011.0
20260904104403 70 107 2.0 9.0 0.00 0.00 0.00 96 1011.1
20260904104308 70 107 3.0 9.0 0.00 0.00 0.00 96 1011.1
20260904104213 70 106 4.0 9.0 0.00 0.00 0.00 96 1011.1
20260904104118 70 128 6.0 9.0 0.00 0.00 0.00 96 1011.1
20260904104001 70 120 5.0 11.0 0.00 0.00 0.00 96 1011.1
20260904103925 70 117 4.0 11.0 0.00 0.00 0.00 96 1011.1
20260904103829 70 119 3.0 11.0 0.00 0.00 0.00 96 1011.1
20260904103717 71 112 3.0 11.0 0.00 0.00 0.00 96 1011.1
20260904103642 71 136 3.0 11.0 0.00 0.00 0.00 96 1011.0
20260904103458 71 135 4.0 11.0 0.00 0.00 0.00 96 1011.1
20260904103404 71 139 6.0 11.0 0.00 0.00 0.00 96 1011.1
20260904103329 71 108 6.0 12.0 0.00 0.00 0.00 96 1011.1
20260904103212 71 141 5.0 12.0 0.00 0.00 0.00 96 1011.1
20260904103058 71 122 4.0 12.0 0.00 0.00 0.00 96 1011.1
20260904103007 71 127 4.0 12.0 0.00 0.00 0.00 96 1011.1
20260904102911 71 115 4.0 12.0 0.00 0.00 0.00 96 1011.1
20260904102836 71 108 4.0 12.0 0.00 0.00 0.00 96 1011.1
20260904102719 71 117 5.0 12.0 0.00 0.00 0.00 96 1011.1
20260904102556 71 110 7.0 12.0 0.00 0.00 0.00 96 1011.2
20260904102501 71 113 5.0 12.0 0.00 0.00 0.00 96 1011.1
20260904102425 71 109 4.0 7.0 0.00 0.00 0.00 96 1011.1
20260904102313 71 143 4.0 7.0 0.00 0.00 0.00 96 1011.1
20260904102238 71 144 4.0 7.0 0.00 0.00 0.00 96 1011.0
20260904102142 71 169 4.0 7.0 0.00 0.00 0.00 96 1011.0
20260904101959 71 136 4.0 7.0 0.00 0.00 0.00 96 1011.0
20260904101903 72 160 4.0 7.0 0.00 0.00 0.00 96 1011.0
20260904101809 72 185 4.0 7.0 0.00 0.00 0.00 96 1011.0
20260904101657 72 127 4.0 7.0 0.00 0.00 0.00 96 1011.0
20260904101601 72 126 4.0 8.0 0.00 0.00 0.00 96 1011.0
20260904101506 72 121 4.0 8.0 0.00 0.00 0.00 96 1011.0
20260904101430 72 130 3.0 8.0 0.00 0.00 0.00 96 1010.9
20260904101334 72 132 3.0 8.0 0.00 0.00 0.00 96 1011.0
20260904101219 72 157 3.0 8.0 0.00 0.00 0.00 96 1010.9
20260904101056 72 157 2.0 8.0 0.00 0.00 0.00 96 1010.9
20260904101004 72 157 4.0 8.0 0.00 0.00 0.00 96 1010.9
20260904100909 72 116 5.0 8.0 0.00 0.00 0.00 96 1010.9
20260904100813 72 131 6.0 8.0 0.00 0.00 0.00 96 1011.0
20260904100658 72 103 6.0 8.0 0.00 0.00 0.00 96 1011.0
20260904100603 72 119 5.0 8.0 0.00 0.00 0.00 96 1011.0
20260904100507 72 117 3.0 7.0 0.00 0.00 0.00 96 1011.0
20260904100412 72 133 3.0 8.0 0.00 0.00 0.00 96 1010.9
20260904100322 72 132 4.0 8.0 0.00 0.00 0.00 96 1011.0
20260904100159 72 121 3.0 8.0 0.00 0.00 0.00 96 1010.9
20260904100104 72 160 3.0 8.0 0.00 0.00 0.00 97 1010.9
20260904100008 72 163 3.0 8.0 0.00 0.00 0.00 97 1010.9
20260904095909 72 155 2.0 8.0 0.00 0.00 0.00 97 1010.9
20260904095834 72 151 2.0 8.0 0.00 0.00 0.00 97 1010.9
20260904095702 72 137 5.0 8.0 0.00 0.00 0.00 97 1011.0
20260904095606 72 136 6.0 8.0 0.00 0.00 0.00 97 1011.0
20260904095510 72 126 5.0 8.0 0.00 0.00 0.00 97 1011.0
20260904095436 72 124 5.0 8.0 0.00 0.00 0.00 97 1011.1
20260904095319 72 116 4.0 6.0 0.00 0.00 0.00 97 1011.1
20260904095157 72 133 3.0 6.0 0.00 0.00 0.00 97 1011.0
20260904095102 72 183 2.0 7.0 0.00 0.00 0.00 97 1010.9
20260904095010 72 184 3.0 7.0 0.00 0.00 0.00 97 1010.9
20260904094856 72 184 3.0 7.0 0.00 0.00 0.00 97 1010.8
20260904094821 72 183 3.0 7.0 0.00 0.00 0.00 97 1010.8
20260904094658 72 160 2.0 7.0 0.00 0.00 0.00 97 1010.9
20260904094603 72 117 2.0 7.0 0.00 0.00 0.00 97 1011.0
20260904094526 72 115 3.0 7.0 0.00 0.00 0.00 96 1011.1
20260904094413 72 116 4.0 7.0 0.00 0.00 0.00 96 1011.1
20260904094319 72 117 5.0 7.0 0.00 0.00 0.00 96 1011.1
20260904094156 72 107 4.0 7.0 0.00 0.00 0.00 97 1011.1
20260904094101 72 114 3.0 4.0 0.00 0.00 0.00 96 1011.0
20260904094007 72 110 2.0 4.0 0.00 0.00 0.00 96 1011.0
20260904093931 72 110 1.0 6.0 0.00 0.00 0.00 96 1011.0
20260904093759 72 110 1.0 6.0 0.00 0.00 0.00 96 1010.9
20260904093704 72 110 1.0 6.0 0.00 0.00 0.00 96 1010.9
20260904093609 72 110 1.0 6.0 0.00 0.00 0.00 96 1010.9
20260904093514 72 110 1.0 6.0 0.00 0.00 0.00 96 1010.9
20260904093357 72 110 2.0 6.0 0.00 0.00 0.00 96 1011.0
20260904093302 72 110 3.0 6.0 0.00 0.00 0.00 96 1011.1
20260904093207 72 110 4.0 6.0 0.00 0.00 0.00 96 1011.1
20260904093136 72 111 4.0 6.0 0.00 0.00 0.00 96 1011.1
20260904092959 72 113 3.0 6.0 0.00 0.00 0.00 96 1011.2
20260904092924 72 117 3.0 6.0 0.00 0.00 0.00 96 1011.1
20260904092808 72 108 3.0 6.0 0.00 0.00 0.00 96 1011.1
20260904092713 72 107 3.0 6.0 0.00 0.00 0.00 96 1011.1
20260904092557 72 107 2.0 4.0 0.00 0.00 0.00 96 1011.1
20260904092507 72 107 1.0 4.0 0.00 0.00 0.00 96 1011.1
20260904092432 72 107 1.0 6.0 0.00 0.00 0.00 96 1011.0
20260904092315 72 107 0.0 6.0 0.00 0.00 0.00 96 1011.0
20260904092240 72 107 0.0 6.0 0.00 0.00 0.00 96 1010.9
20260904092057 72 107 0.0 6.0 0.00 0.00 0.00 96 1010.9
20260904092002 72 107 1.0 6.0 0.00 0.00 0.00 96 1011.0
20260904091907 72 107 2.0 6.0 0.00 0.00 0.00 96 1011.0
20260904091756 72 107 3.0 6.0 0.00 0.00 0.00 96 1011.2
20260904091721 72 107 4.0 6.0 0.00 0.00 0.00 96 1011.2
20260904091558 72 111 4.0 6.0 0.00 0.00 0.00 96 1011.2
20260904091504 72 103 4.0 7.0 0.00 0.00 0.00 96 1011.1
20260904091408 72 114 3.0 8.0 0.00 0.00 0.00 96 1011.0
20260904091308 72 144 1.0 9.0 0.00 0.00 0.00 96 1011.0
20260904091156 72 145 1.0 9.0 0.00 0.00 0.00 96 1010.9
20260904091121 72 145 2.0 9.0 0.00 0.00 0.00 96 1010.8
20260904091005 72 145 2.0 9.0 0.00 0.00 0.00 96 1010.9
20260904090907 72 119 3.0 9.0 0.00 0.00 0.00 96 1010.9
20260904090812 72 115 3.0 9.0 0.00 0.00 0.00 96 1010.9
20260904090658 72 119 5.0 9.0 0.00 0.00 0.00 96 1011.1
20260904090623 72 98 6.0 9.0 0.00 0.00 0.00 96 1011.1
20260904090511 72 78 7.0 9.0 0.00 0.00 0.00 96 1011.1
20260904090355 72 96 6.0 9.0 0.00 0.00 0.00 96 1011.1
20260904090319 72 94 4.0 10.0 0.00 0.00 0.00 96 1011.1
20260904090156 72 117 2.0 13.0 0.00 0.00 0.00 96 1010.9
20260904090120 72 117 0.0 13.0 0.00 0.00 0.00 95 1010.9
20260904090023 72 117 0.0 13.0 0.00 0.00 0.00 95 1010.8
20260904085905 72 117 1.0 13.0 0.00 0.00 0.00 95 1010.8
20260904085814 72 117 3.0 13.0 0.00 0.00 0.00 95 1010.8
20260904085721 72 117 5.0 13.0 0.00 0.00 0.00 95 1010.8
20260904085559 72 112 7.0 13.0 0.00 0.00 0.00 95 1010.9
20260904085504 72 82 9.0 13.0 0.00 0.00 0.00 95 1010.9
20260904085409 72 80 9.0 13.0 0.00 0.00 0.00 96 1010.9
20260904085313 72 80 8.0 11.0 0.00 0.00 0.00 95 1010.8
20260904085242 72 85 7.0 9.0 0.00 0.00 0.00 96 1010.9
20260904085058 72 104 5.0 7.0 0.00 0.00 0.00 95 1010.7
20260904085003 72 117 4.0 6.0 0.00 0.00 0.00 95 1010.6
20260904084927 72 129 4.0 5.0 0.00 0.00 0.00 95 1010.6
20260904084831 72 159 3.0 5.0 0.00 0.00 0.00 95 1010.5
20260904084656 72 197 2.0 3.0 0.00 0.00 0.00 95 1010.4
20260904084600 72 217 1.0 3.0 0.00 0.00 0.00 95 1010.4
20260904084530 72 217 1.0 2.0 0.00 0.00 0.00 95 1010.4
20260904084414 72 217 0.0 2.0 0.00 0.00 0.00 95 1010.4
20260904084318 72 217 0.0 2.0 0.00 0.00 0.00 96 1010.4
20260904084202 72 217 0.0 3.0 0.00 0.00 0.00 96 1010.3
20260904084106 72 217 0.0 3.0 0.00 0.00 0.00 96 1010.3
20260904084010 73 217 0.0 3.0 0.00 0.00 0.00 95 1010.3
20260904083859 72 217 0.0 3.0 0.00 0.00 0.00 95 1010.2
20260904083804 72 217 1.0 3.0 0.00 0.00 0.00 95 1010.2
20260904083709 72 217 1.0 3.0 0.00 0.00 0.00 95 1010.2
20260904083633 73 217 1.0 3.0 0.00 0.00 0.00 95 1010.2
20260904083457 72 217 2.0 3.0 0.00 0.00 0.00 95 1010.2
20260904083402 72 217 2.0 4.0 0.00 0.00 0.00 95 1010.2
20260904083327 72 217 2.0 4.0 0.00 0.00 0.00 95 1010.2
20260904083231 72 217 2.0 4.0 0.00 0.00 0.00 95 1010.1
20260904083119 73 217 2.0 4.0 0.00 0.00 0.00 95 1010.1
20260904082956 73 217 2.0 4.0 0.00 0.00 0.00 95 1010.1
20260904082901 73 217 2.0 4.0 0.00 0.00 0.00 95 1010.2
20260904082807 73 217 2.0 4.0 0.00 0.00 0.00 95 1010.2
20260904082712 73 218 2.0 4.0 0.00 0.00 0.00 95 1010.2
20260904082600 73 218 2.0 4.0 0.00 0.00 0.00 95 1010.2
20260904082506 73 218 2.0 4.0 0.00 0.00 0.00 95 1010.2
20260904082411 73 218 2.0 4.0 0.00 0.00 0.00 95 1010.1
20260904082256 73 218 2.0 4.0 0.00 0.00 0.00 95 1010.1
20260904082200 73 218 2.0 4.0 0.00 0.00 0.00 95 1010.2
20260904082105 73 218 3.0 4.0 0.00 0.00 0.00 95 1010.2
20260904082014 73 218 2.0 4.0 0.00 0.00 0.00 95 1010.1
20260904081919 73 218 3.0 4.0 0.00 0.00 0.00 95 1010.1
20260904081756 72 218 3.0 4.0 0.00 0.00 0.00 95 1010.1
20260904081722 72 218 3.0 4.0 0.00 0.00 0.00 95 1010.1
20260904081606 72 218 3.0 4.0 0.00 0.00 0.00 95 1010.1
20260904081530 72 218 3.0 4.0 0.00 0.00 0.00 95 1010.2
20260904081434 72 218 3.0 3.0 0.00 0.00 0.00 95 1010.2
20260904081319 72 218 3.0 3.0 0.00 0.00 0.00 94 1010.2
20260904081206 72 218 3.0 3.0 0.00 0.00 0.00 94 1010.2
20260904081131 72 218 2.0 3.0 0.00 0.00 0.00 94 1010.2
20260904080956 72 218 2.0 3.0 0.00 0.00 0.00 94 1010.2
20260904080921 72 218 2.0 3.0 0.00 0.00 0.00 94 1010.1
20260904080805 72 218 2.0 3.0 0.00 0.00 0.00 94 1010.2
20260904080709 72 218 2.0 3.0 0.00 0.00 0.00 94 1010.2
20260904080634 72 218 2.0 3.0 0.00 0.00 0.00 94 1010.2
20260904080522 72 218 2.0 3.0 0.00 0.00 0.00 94 1010.3
20260904080358 72 218 2.0 3.0 0.00 0.00 0.00 94 1010.2
20260904080304 72 218 2.0 2.0 0.00 0.00 0.00 94 1010.2
20260904080206 72 218 2.0 2.0 0.00 0.00 0.00 94 1010.2
20260904080110 72 218 1.0 2.0 0.00 0.00 0.00 94 1010.2
20260904075956 73 218 1.0 3.0 0.00 0.00 0.00 94 1010.2
20260904075920 73 218 2.0 3.0 0.00 0.00 0.00 94 1010.2
20260904075807 73 218 1.0 3.0 0.00 0.00 0.00 94 1010.2
20260904075713 73 218 1.0 3.0 0.00 0.00 0.00 94 1010.3
20260904075557 73 218 1.0 3.0 0.00 0.00 0.00 94 1010.3
20260904075503 72 218 1.0 3.0 0.00 0.00 0.00 94 1010.2
20260904075407 73 218 2.0 3.0 0.00 0.00 0.00 94 1010.2
20260904075333 73 218 1.0 3.0 0.00 0.00 0.00 93 1010.2
20260904075201 73 218 2.0 3.0 0.00 0.00 0.00 93 1010.2
20260904075106 73 218 2.0 3.0 0.00 0.00 0.00 93 1010.2
20260904075010 73 218 2.0 3.0 0.00 0.00 0.00 93 1010.2
20260904074934 73 218 2.0 3.0 0.00 0.00 0.00 94 1010.1
20260904074817 73 218 2.0 3.0 0.00 0.00 0.00 94 1010.2
20260904074742 73 218 1.0 3.0 0.00 0.00 0.00 94 1010.2
20260904074558 73 218 1.0 3.0 0.00 0.00 0.00 94 1010.2
20260904074508 73 218 1.0 3.0 0.00 0.00 0.00 94 1010.2
20260904074412 73 218 1.0 4.0 0.00 0.00 0.00 94 1010.1
20260904074258 73 218 1.0 4.0 0.00 0.00 0.00 94 1010.1
20260904074203 73 218 1.0 4.0 0.00 0.00 0.00 94 1010.1
20260904074107 73 218 1.0 4.0 0.00 0.00 0.00 94 1010.1
20260904074033 73 218 2.0 4.0 0.00 0.00 0.00 94 1010.2
20260904073900 73 218 3.0 4.0 0.00 0.00 0.00 94 1010.1
20260904073806 73 218 3.0 4.0 0.00 0.00 0.00 94 1010.1
20260904073730 73 218 3.0 4.0 0.00 0.00 0.00 94 1010.2
20260904073615 73 218 3.0 4.0 0.00 0.00 0.00 94 1010.1
20260904073519 73 219 3.0 4.0 0.00 0.00 0.00 94 1010.2
20260904073357 73 219 3.0 3.0 0.00 0.00 0.00 94 1010.2
20260904073305 73 219 2.0 3.0 0.00 0.00 0.00 93 1010.2
20260904073211 73 219 2.0 4.0 0.00 0.00 0.00 93 1010.3
20260904073115 73 219 2.0 4.0 0.00 0.00 0.00 93 1010.2
20260904072959 73 219 2.0 4.0 0.00 0.00 0.00 93 1010.2
20260904072924 73 219 2.0 4.0 0.00 0.00 0.00 93 1010.3
20260904072808 73 219 2.0 4.0 0.00 0.00 0.00 93 1010.3
20260904072656 73 219 2.0 4.0 0.00 0.00 0.00 93 1010.2
20260904072601 73 219 2.0 4.0 0.00 0.00 0.00 93 1010.2
20260904072506 74 219 3.0 4.0 0.00 0.00 0.00 93 1010.2
20260904072410 74 219 2.0 4.0 0.00 0.00 0.00 93 1010.3
20260904072335 74 220 2.0 3.0 0.00 0.00 0.00 93 1010.2
20260904072219 74 220 3.0 3.0 0.00 0.00 0.00 93 1010.3
20260904072103 74 219 3.0 4.0 0.00 0.00 0.00 93 1010.2
20260904072013 74 220 3.0 4.0 0.00 0.00 0.00 93 1010.2
20260904071857 74 220 3.0 4.0 0.00 0.00 0.00 93 1010.2
20260904071803 74 220 2.0 5.0 0.00 0.00 0.00 93 1010.3
20260904071707 74 220 2.0 5.0 0.00 0.00 0.00 93 1010.3
20260904071612 74 220 2.0 5.0 0.00 0.00 0.00 93 1010.2
20260904071457 74 220 2.0 5.0 0.00 0.00 0.00 93 1010.2
20260904071425 74 221 3.0 5.0 0.00 0.00 0.00 93 1010.2
20260904071310 74 221 3.0 5.0 0.00 0.00 0.00 93 1010.2
20260904071235 74 221 3.0 5.0 0.00 0.00 0.00 93 1010.2
20260904071119 74 221 3.0 5.0 0.00 0.00 0.00 93 1010.1
20260904071003 74 221 3.0 5.0 0.00 0.00 0.00 93 1010.2
20260904070907 74 221 3.0 5.0 0.00 0.00 0.00 93 1010.2
20260904070812 74 221 3.0 5.0 0.00 0.00 0.00 93 1010.2
20260904070721 74 221 3.0 5.0 0.00 0.00 0.00 93 1010.1
20260904070558 74 221 3.0 5.0 0.00 0.00 0.00 93 1010.2
20260904070524 74 221 3.0 5.0 0.00 0.00 0.00 93 1010.2
20260904070407 74 221 3.0 5.0 0.00 0.00 0.00 93 1010.2
20260904070313 74 221 3.0 6.0 0.00 0.00 0.00 93 1010.2
20260904070158 74 221 4.0 6.0 0.00 0.00 0.00 93 1010.2
20260904070106 74 221 4.0 6.0 0.00 0.00 0.00 93 1010.2
20260904070011 74 219 4.0 6.0 0.00 0.00 0.00 93 1010.2
20260904065936 74 234 4.0 6.0 0.00 0.00 0.00 93 1010.2
20260904065800 74 216 4.0 6.0 0.00 0.00 0.00 93 1010.3
20260904065704 74 216 4.0 6.0 0.00 0.00 0.00 93 1010.3
20260904065628 74 215 4.0 6.0 0.00 0.00 0.00 93 1010.3
20260904065512 74 216 4.0 6.0 0.00 0.00 0.00 93 1010.3
20260904065401 74 223 4.0 6.0 0.00 0.00 0.00 93 1010.3
20260904065307 74 224 4.0 6.0 0.00 0.00 0.00 93 1010.3
20260904065210 74 221 4.0 5.0 0.00 0.00 0.00 93 1010.2
20260904065056 74 224 4.0 5.0 0.00 0.00 0.00 93 1010.4
20260904065020 74 224 3.0 5.0 0.00 0.00 0.00 93 1010.4
20260904064859 74 224 3.0 5.0 0.00 0.00 0.00 93 1010.4
20260904064807 74 224 3.0 5.0 0.00 0.00 0.00 93 1010.4
20260904064712 74 224 3.0 5.0 0.00 0.00 0.00 93 1010.4
20260904064616 74 223 3.0 5.0 0.00 0.00 0.00 93 1010.3
20260904064542 74 224 3.0 5.0 0.00 0.00 0.00 93 1010.4
20260904064358 74 224 3.0 5.0 0.00 0.00 0.00 93 1010.4
20260904064304 74 225 4.0 5.0 0.00 0.00 0.00 93 1010.2
20260904064212 74 225 4.0 5.0 0.00 0.00 0.00 93 1010.2
20260904064136 74 205 3.0 5.0 0.00 0.00 0.00 93 1010.3
20260904064019 74 205 3.0 5.0 0.00 0.00 0.00 93 1010.3
20260904063856 74 202 3.0 4.0 0.00 0.00 0.00 93 1010.3
20260904063821 74 202 3.0 5.0 0.00 0.00 0.00 93 1010.3
20260904063704 74 202 3.0 5.0 0.00 0.00 0.00 93 1010.3
20260904063608 74 202 3.0 5.0 0.00 0.00 0.00 93 1010.3
20260904063458 74 202 3.0 5.0 0.00 0.00 0.00 93 1010.4
20260904063402 74 202 3.0 7.0 0.00 0.00 0.00 92 1010.4
20260904063327 74 202 3.0 7.0 0.00 0.00 0.00 92 1010.4
20260904063211 74 202 3.0 7.0 0.00 0.00 0.00 92 1010.4
20260904063116 74 201 4.0 7.0 0.00 0.00 0.00 92 1010.4
20260904063040 74 200 3.0 7.0 0.00 0.00 0.00 92 1010.4
20260904062857 74 200 3.0 7.0 0.00 0.00 0.00 93 1010.4
20260904062805 74 200 4.0 7.0 0.00 0.00 0.00 93 1010.4
20260904062711 74 199 4.0 7.0 0.00 0.00 0.00 92 1010.4
20260904062614 74 198 4.0 7.0 0.00 0.00 0.00 92 1010.4
20260904062459 74 212 4.0 6.0 0.00 0.00 0.00 93 1010.4
20260904062405 74 213 4.0 6.0 0.00 0.00 0.00 92 1010.5
20260904062309 74 211 4.0 6.0 0.00 0.00 0.00 93 1010.5
20260904062158 74 213 4.0 6.0 0.00 0.00 0.00 92 1010.4
20260904062104 74 211 4.0 5.0 0.00 0.00 0.00 92 1010.4
20260904062008 74 211 4.0 5.0 0.00 0.00 0.00 92 1010.4
20260904061913 74 194 4.0 5.0 0.00 0.00 0.00 92 1010.4
20260904061817 74 194 4.0 5.0 0.00 0.00 0.00 92 1010.3
20260904061701 74 192 4.0 5.0 0.00 0.00 0.00 92 1010.3
20260904061610 74 192 3.0 5.0 0.00 0.00 0.00 92 1010.3
20260904061515 74 184 3.0 5.0 0.00 0.00 0.00 92 1010.4
20260904061359 74 184 3.0 5.0 0.00 0.00 0.00 92 1010.4
20260904061304 74 184 3.0 5.0 0.00 0.00 0.00 92 1010.5
20260904061210 74 182 3.0 5.0 0.00 0.00 0.00 91 1010.5
20260904061114 74 182 3.0 5.0 0.00 0.00 0.00 91 1010.5
20260904061022 74 182 3.0 5.0 0.00 0.00 0.00 91 1010.5
20260904060906 74 182 3.0 5.0 0.00 0.00 0.00 91 1010.5
20260904060811 74 182 4.0 5.0 0.00 0.00 0.00 91 1010.5
20260904060656 74 182 4.0 5.0 0.00 0.00 0.00 92 1010.5
20260904060621 75 182 4.0 5.0 0.00 0.00 0.00 92 1010.5
20260904060457 74 180 3.0 5.0 0.00 0.00 0.00 92 1010.5
20260904060406 75 180 3.0 5.0 0.00 0.00 0.00 92 1010.5
20260904060331 75 177 3.0 5.0 0.00 0.00 0.00 92 1010.5
20260904060235 75 176 3.0 5.0 0.00 0.00 0.00 92 1010.5
20260904060059 75 176 3.0 5.0 0.00 0.00 0.00 92 1010.6
20260904060004 75 177 2.0 5.0 0.00 0.00 0.00 92 1010.4
20260904055909 75 176 2.0 5.0 0.00 0.00 0.00 92 1010.4
20260904055814 74 176 2.0 5.0 0.00 0.00 0.00 92 1010.5
20260904055703 74 176 3.0 5.0 0.00 0.00 0.00 92 1010.4
20260904055609 74 175 2.0 5.0 0.00 0.00 0.00 92 1010.4
20260904055533 74 175 2.0 5.0 0.00 0.00 0.00 92 1010.5
20260904055357 74 189 3.0 5.0 0.00 0.00 0.00 92 1010.5
20260904055301 74 190 3.0 5.0 0.00 0.00 0.00 92 1010.5
20260904055206 74 194 2.0 5.0 0.00 0.00 0.00 92 1010.5
20260904055056 74 194 3.0 5.0 0.00 0.00 0.00 92 1010.5
20260904055021 74 195 3.0 5.0 0.00 0.00 0.00 92 1010.5
20260904054904 74 195 3.0 5.0 0.00 0.00 0.00 92 1010.4
20260904054809 74 196 3.0 7.0 0.00 0.00 0.00 92 1010.4
20260904054734 74 200 4.0 7.0 0.00 0.00 0.00 92 1010.4
20260904054618 74 200 4.0 7.0 0.00 0.00 0.00 91 1010.4
20260904054456 74 200 3.0 7.0 0.00 0.00 0.00 91 1010.5
20260904054404 74 200 3.0 7.0 0.00 0.00 0.00 91 1010.5
20260904054309 74 200 4.0 7.0 0.00 0.00 0.00 91 1010.5
20260904054213 74 200 4.0 7.0 0.00 0.00 0.00 91 1010.4
20260904054057 74 198 5.0 7.0 0.00 0.00 0.00 91 1010.3
20260904054002 74 198 5.0 7.0 0.00 0.00 0.00 91 1010.3
20260904053907 74 199 5.0 7.0 0.00 0.00 0.00 91 1010.3
20260904053757 75 198 5.0 7.0 0.00 0.00 0.00 91 1010.4
20260904053701 75 186 5.0 7.0 0.00 0.00 0.00 91 1010.3
20260904053627 75 186 5.0 7.0 0.00 0.00 0.00 90 1010.3
20260904053531 75 182 5.0 7.0 0.00 0.00 0.00 90 1010.3
20260904053414 75 186 4.0 5.0 0.00 0.00 0.00 90 1010.4
20260904053259 75 185 4.0 5.0 0.00 0.00 0.00 90 1010.4
20260904053203 75 185 4.0 5.0 0.00 0.00 0.00 90 1010.4
20260904053112 75 185 4.0 5.0 0.00 0.00 0.00 90 1010.4
20260904052957 75 184 3.0 5.0 0.00 0.00 0.00 90 1010.5
20260904052903 75 184 3.0 5.0 0.00 0.00 0.00 91 1010.4
20260904052807 75 184 2.0 5.0 0.00 0.00 0.00 91 1010.4
20260904052712 75 182 2.0 7.0 0.00 0.00 0.00 91 1010.5
20260904052601 75 182 2.0 7.0 0.00 0.00 0.00 91 1010.5
20260904052506 75 182 2.0 7.0 0.00 0.00 0.00 91 1010.5
20260904052411 75 181 2.0 7.0 0.00 0.00 0.00 91 1010.5
20260904052256 75 181 3.0 8.0 0.00 0.00 0.00 90 1010.4
20260904052201 75 181 4.0 9.0 0.00 0.00 0.00 90 1010.4
20260904052125 75 193 4.0 9.0 0.00 0.00 0.00 90 1010.4
20260904052009 75 199 5.0 9.0 0.00 0.00 0.00 90 1010.4
20260904051937 75 201 5.0 9.0 0.00 0.00 0.00 90 1010.4
20260904051841 75 194 5.0 9.0 0.00 0.00 0.00 90 1010.4
20260904051658 75 200 6.0 9.0 0.00 0.00 0.00 90 1010.5
20260904051604 75 196 6.0 9.0 0.00 0.00 0.00 90 1010.4
20260904051508 75 209 6.0 9.0 0.00 0.00 0.00 90 1010.4
20260904051413 75 200 6.0 9.0 0.00 0.00 0.00 90 1010.4
20260904051301 75 194 5.0 9.0 0.00 0.00 0.00 90 1010.3
20260904051225 75 204 4.0 7.0 0.00 0.00 0.00 90 1010.4
20260904051109 75 212 3.0 7.0 0.00 0.00 0.00 90 1010.4
20260904051014 75 212 3.0 7.0 0.00 0.00 0.00 90 1010.4
20260904050859 75 212 4.0 7.0 0.00 0.00 0.00 90 1010.4
20260904050804 75 213 4.0 7.0 0.00 0.00 0.00 90 1010.4
20260904050709 75 213 5.0 7.0 0.00 0.00 0.00 90 1010.4
20260904050558 75 198 5.0 7.0 0.00 0.00 0.00 90 1010.4
20260904050503 75 202 5.0 7.0 0.00 0.00 0.00 90 1010.3
20260904050408 75 201 5.0 7.0 0.00 0.00 0.00 89 1010.3
20260904050312 75 199 5.0 7.0 0.00 0.00 0.00 89 1010.4
20260904050217 75 187 5.0 7.0 0.00 0.00 0.00 89 1010.4
20260904050100 75 173 5.0 7.0 0.00 0.00 0.00 89 1010.3
20260904050008 75 190 5.0 7.0 0.00 0.00 0.00 89 1010.3
20260904045914 75 186 5.0 6.0 0.00 0.00 0.00 89 1010.3
20260904045819 75 167 4.0 6.0 0.00 0.00 0.00 89 1010.4
20260904045702 75 182 3.0 6.0 0.00 0.00 0.00 89 1010.4
20260904045625 76 172 3.0 4.0 0.00 0.00 0.00 89 1010.4
20260904045529 76 172 3.0 5.0 0.00 0.00 0.00 89 1010.4
20260904045413 76 169 3.0 5.0 0.00 0.00 0.00 89 1010.4
20260904045322 76 169 3.0 5.0 0.00 0.00 0.00 89 1010.3
20260904045226 76 170 3.0 5.0 0.00 0.00 0.00 89 1010.3
20260904045110 76 171 3.0 5.0 0.00 0.00 0.00 89 1010.3
20260904045014 76 171 2.0 5.0 0.00 0.00 0.00 89 1010.4
20260904044919 76 171 1.0 5.0 0.00 0.00 0.00 88 1010.4
20260904044803 76 171 1.0 5.0 0.00 0.00 0.00 88 1010.3
20260904044708 76 171 2.0 5.0 0.00 0.00 0.00 88 1010.4
20260904044616 76 171 2.0 5.0 0.00 0.00 0.00 88 1010.4
20260904044500 76 171 2.0 5.0 0.00 0.00 0.00 88 1010.4
20260904044405 76 171 3.0 5.0 0.00 0.00 0.00 88 1010.4
20260904044309 76 173 4.0 6.0 0.00 0.00 0.00 88 1010.4
20260904044215 76 173 4.0 6.0 0.00 0.00 0.00 88 1010.4
20260904044119 76 182 3.0 6.0 0.00 0.00 0.00 88 1010.3
20260904044004 76 184 3.0 6.0 0.00 0.00 0.00 88 1010.3
20260904043912 76 184 3.0 6.0 0.00 0.00 0.00 88 1010.3
20260904043819 76 182 3.0 6.0 0.00 0.00 0.00 88 1010.4
20260904043656 76 184 3.0 6.0 0.00 0.00 0.00 88 1010.3
20260904043620 76 184 4.0 6.0 0.00 0.00 0.00 88 1010.3
20260904043504 76 186 4.0 6.0 0.00 0.00 0.00 88 1010.3
20260904043429 76 187 4.0 6.0 0.00 0.00 0.00 88 1010.3
20260904043256 76 179 4.0 6.0 0.00 0.00 0.00 88 1010.4
20260904043221 76 177 4.0 6.0 0.00 0.00 0.00 88 1010.4
20260904043104 76 172 3.0 6.0 0.00 0.00 0.00 88 1010.4
20260904043009 76 178 2.0 6.0 0.00 0.00 0.00 88 1010.4
20260904042913 76 178 3.0 6.0 0.00 0.00 0.00 88 1010.4
20260904042758 76 178 4.0 6.0 0.00 0.00 0.00 87 1010.3
20260904042723 76 170 4.0 6.0 0.00 0.00 0.00 87 1010.3
20260904042626 76 169 4.0 6.0 0.00 0.00 0.00 87 1010.3
20260904042534 76 170 4.0 6.0 0.00 0.00 0.00 87 1010.3
20260904042358 76 170 4.0 6.0 0.00 0.00 0.00 87 1010.3
20260904042306 76 190 4.0 6.0 0.00 0.00 0.00 87 1010.3
20260904042208 76 192 5.0 6.0 0.00 0.00 0.00 87 1010.2
20260904042112 76 171 4.0 5.0 0.00 0.00 0.00 86 1010.2
20260904041958 76 168 4.0 5.0 0.00 0.00 0.00 86 1010.2
20260904041906 77 168 3.0 5.0 0.00 0.00 0.00 86 1010.2
20260904041810 77 168 3.0 6.0 0.00 0.00 0.00 86 1010.2
20260904041735 77 168 4.0 6.0 0.00 0.00 0.00 86 1010.2
20260904041639 77 168 4.0 6.0 0.00 0.00 0.00 86 1010.2
20260904041455 77 167 4.0 6.0 0.00 0.00 0.00 86 1010.2
20260904041420 77 167 3.0 6.0 0.00 0.00 0.00 86 1010.2
20260904041257 77 159 3.0 6.0 0.00 0.00 0.00 86 1010.1
20260904041206 77 159 3.0 6.0 0.00 0.00 0.00 86 1010.2
20260904041112 77 159 4.0 6.0 0.00 0.00 0.00 86 1010.2
20260904040957 77 159 3.0 6.0 0.00 0.00 0.00 86 1010.3
20260904040921 77 165 3.0 6.0 0.00 0.00 0.00 85 1010.2
20260904040805 77 164 3.0 6.0 0.00 0.00 0.00 85 1010.2
20260904040709 77 161 4.0 6.0 0.00 0.00 0.00 85 1010.2
20260904040558 77 157 5.0 6.0 0.00 0.00 0.00 85 1010.2
20260904040503 77 162 5.0 6.0 0.00 0.00 0.00 85 1010.1
20260904040429 77 161 4.0 6.0 0.00 0.00 0.00 85 1010.1
20260904040312 78 161 3.0 6.0 0.00 0.00 0.00 85 1010.1
20260904040217 78 173 2.0 6.0 0.00 0.00 0.00 85 1010.1
20260904040056 78 173 2.0 6.0 0.00 0.00 0.00 85 1010.1
20260904040021 78 173 2.0 6.0 0.00 0.00 0.00 86 1010.0
20260904035908 78 174 2.0 6.0 0.00 0.00 0.00 85 1010.0
20260904035833 78 174 3.0 6.0 0.00 0.00 0.00 85 1010.1
20260904035718 78 175 3.0 6.0 0.00 0.00 0.00 85 1010.0
20260904035621 78 174 4.0 6.0 0.00 0.00 0.00 86 1010.0
20260904035500 78 166 4.0 6.0 0.00 0.00 0.00 86 1010.0
20260904035405 78 182 4.0 6.0 0.00 0.00 0.00 86 1010.1
20260904035309 78 178 4.0 6.0 0.00 0.00 0.00 85 1010.1
20260904035217 78 167 3.0 6.0 0.00 0.00 0.00 85 1009.9
20260904035100 78 169 4.0 6.0 0.00 0.00 0.00 85 1010.0
20260904035004 78 171 4.0 6.0 0.00 0.00 0.00 85 1010.1
20260904034910 78 182 4.0 6.0 0.00 0.00 0.00 85 1010.1
20260904034814 78 193 4.0 6.0 0.00 0.00 0.00 85 1010.0
20260904034659 78 196 3.0 6.0 0.00 0.00 0.00 85 1010.0
20260904034624 78 201 3.0 6.0 0.00 0.00 0.00 85 1010.1
20260904034511 78 203 4.0 6.0 0.00 0.00 0.00 85 1010.1
20260904034417 78 202 4.0 6.0 0.00 0.00 0.00 85 1010.0
20260904034300 78 202 4.0 6.0 0.00 0.00 0.00 84 1010.1
20260904034204 78 200 4.0 6.0 0.00 0.00 0.00 84 1010.0
20260904034110 78 199 4.0 6.0 0.00 0.00 0.00 84 1010.0
20260904034014 78 198 5.0 6.0 0.00 0.00 0.00 84 1010.0
20260904033920 78 196 4.0 6.0 0.00 0.00 0.00 84 1010.0
20260904033807 78 191 4.0 6.0 0.00 0.00 0.00 84 1010.0
20260904033732 78 190 5.0 6.0 0.00 0.00 0.00 84 1010.0
20260904033557 78 197 4.0 7.0 0.00 0.00 0.00 84 1010.0
20260904033501 78 194 5.0 7.0 0.00 0.00 0.00 84 1010.1
20260904033407 78 192 4.0 7.0 0.00 0.00 0.00 84 1010.1
20260904033311 78 193 4.0 7.0 0.00 0.00 0.00 84 1010.1
20260904033200 78 197 4.0 7.0 0.00 0.00 0.00 84 1010.1
20260904033125 78 197 4.0 7.0 0.00 0.00 0.00 83 1010.1
20260904033009 78 197 4.0 7.0 0.00 0.00 0.00 83 1010.1
20260904032913 78 196 5.0 7.0 0.00 0.00 0.00 83 1010.1
20260904032759 79 207 5.0 8.0 0.00 0.00 0.00 83 1010.0
20260904032704 79 203 5.0 9.0 0.00 0.00 0.00 83 1010.0
20260904032612 79 205 5.0 9.0 0.00 0.00 0.00 83 1010.0
20260904032517 79 213 5.0 9.0 0.00 0.00 0.00 83 1010.0
20260904032355 79 207 4.0 9.0 0.00 0.00 0.00 83 1010.0
20260904032300 79 240 4.0 9.0 0.00 0.00 0.00 83 1010.1
20260904032204 79 220 5.0 9.0 0.00 0.00 0.00 83 1010.0
20260904032109 79 210 6.0 9.0 0.00 0.00 0.00 83 1010.0
20260904031958 79 198 6.0 9.0 0.00 0.00 0.00 83 1010.0
20260904031903 79 229 5.0 8.0 0.00 0.00 0.00 83 1010.0
20260904031829 79 235 5.0 8.0 0.00 0.00 0.00 83 1009.9
20260904031712 79 221 5.0 8.0 0.00 0.00 0.00 83 1009.9
20260904031558 79 238 5.0 8.0 0.00 0.00 0.00 83 1010.0
20260904031502 79 232 5.0 8.0 0.00 0.00 0.00 83 1010.0
20260904031411 79 241 5.0 8.0 0.00 0.00 0.00 83 1010.0
20260904031316 79 236 6.0 9.0 0.00 0.00 0.00 83 1009.9
20260904031220 79 236 6.0 9.0 0.00 0.00 0.00 83 1009.9
20260904031057 79 239 6.0 9.0 0.00 0.00 0.00 83 1009.9
20260904031002 79 232 6.0 9.0 0.00 0.00 0.00 83 1009.9
20260904030908 79 234 6.0 10.0 0.00 0.00 0.00 83 1009.9
20260904030833 79 232 6.0 10.0 0.00 0.00 0.00 83 1009.9
20260904030700 79 248 5.0 10.0 0.00 0.00 0.00 82 1009.9
20260904030604 79 244 5.0 10.0 0.00 0.00 0.00 82 1009.9
20260904030510 79 252 5.0 10.0 0.00 0.00 0.00 82 1009.9
20260904030417 79 227 5.0 10.0 0.00 0.00 0.00 82 1010.0
20260904030319 79 246 6.0 10.0 0.00 0.00 0.00 82 1010.0
20260904030157 79 254 7.0 10.0 0.00 0.00 0.00 82 1010.0
20260904030107 79 219 6.0 10.0 0.00 0.00 0.00 82 1010.0
20260904030012 79 220 5.0 9.0 0.00 0.00 0.00 82 1010.0
20260904025856 79 228 6.0 9.0 0.00 0.00 0.00 82 1009.9
20260904025800 79 240 6.0 9.0 0.00 0.00 0.00 82 1009.9
20260904025706 79 235 5.0 9.0 0.00 0.00 0.00 82 1010.0
20260904025610 79 227 5.0 9.0 0.00 0.00 0.00 82 1010.0
20260904025458 79 221 5.0 9.0 0.00 0.00 0.00 82 1010.0
20260904025424 79 234 5.0 9.0 0.00 0.00 0.00 82 1010.0
20260904025307 79 228 6.0 9.0 0.00 0.00 0.00 82 1010.1
20260904025210 79 247 5.0 9.0 0.00 0.00 0.00 82 1010.1
20260904025055 79 218 4.0 8.0 0.00 0.00 0.00 82 1010.1
20260904025000 79 217 5.0 8.0 0.00 0.00 0.00 82 1010.1
20260904024929 79 217 5.0 8.0 0.00 0.00 0.00 82 1010.1
20260904024814 79 217 5.0 8.0 0.00 0.00 0.00 82 1010.1
20260904024718 79 226 6.0 9.0 0.00 0.00 0.00 82 1010.1
20260904024555 79 230 5.0 8.0 0.00 0.00 0.00 82 1010.1
20260904024458 79 224 5.0 8.0 0.00 0.00 0.00 81 1010.0
20260904024402 79 211 5.0 8.0 0.00 0.00 0.00 81 1010.0
20260904024327 79 240 5.0 9.0 0.00 0.00 0.00 81 1010.0
20260904024211 79 238 6.0 9.0 0.00 0.00 0.00 81 1010.0
20260904024120 79 214 6.0 9.0 0.00 0.00 0.00 81 1010.0
20260904023957 79 227 6.0 9.0 0.00 0.00 0.00 81 1010.0
20260904023902 79 223 6.0 9.0 0.00 0.00 0.00 81 1010.0
20260904023807 79 226 5.0 9.0 0.00 0.00 0.00 81 1010.0
20260904023711 79 213 5.0 9.0 0.00 0.00 0.00 81 1010.0
20260904023615 79 220 6.0 9.0 0.00 0.00 0.00 81 1010.0
20260904023504 79 220 6.0 9.0 0.00 0.00 0.00 81 1010.0
20260904023408 79 216 6.0 8.0 0.00 0.00 0.00 81 1010.0
20260904023314 79 225 6.0 8.0 0.00 0.00 0.00 81 1010.0
20260904023159 79 215 6.0 9.0 0.00 0.00 0.00 81 1010.0
20260904023104 79 225 6.0 8.0 0.00 0.00 0.00 80 1010.0
20260904023008 79 217 6.0 8.0 0.00 0.00 0.00 80 1009.9
20260904022936 79 216 6.0 8.0 0.00 0.00 0.00 80 1009.9
20260904022820 79 218 6.0 8.0 0.00 0.00 0.00 80 1009.9
20260904022657 79 219 6.0 8.0 0.00 0.00 0.00 80 1010.0
20260904022602 79 220 6.0 8.0 0.00 0.00 0.00 80 1010.0
20260904022507 79 217 6.0 8.0 0.00 0.00 0.00 80 1009.9
20260904022411 79 231 6.0 8.0 0.00 0.00 0.00 80 1009.9
20260904022300 79 229 6.0 8.0 0.00 0.00 0.00 80 1009.9
20260904022204 80 221 6.0 7.0 0.00 0.00 0.00 80 1010.0
20260904022129 80 223 6.0 7.0 0.00 0.00 0.00 80 1010.0
20260904022013 80 219 5.0 7.0 0.00 0.00 0.00 80 1010.0
20260904021918 80 225 5.0 7.0 0.00 0.00 0.00 80 1009.9
20260904021755 80 221 5.0 7.0 0.00 0.00 0.00 80 1009.9
20260904021705 80 209 5.0 7.0 0.00 0.00 0.00 80 1010.0
20260904021629 80 229 5.0 7.0 0.00 0.00 0.00 80 1010.0
20260904021533 80 217 5.0 7.0 0.00 0.00 0.00 79 1010.0
20260904021417 80 215 5.0 7.0 0.00 0.00 0.00 79 1010.0
20260904021255 80 211 5.0 7.0 0.00 0.00 0.00 79 1010.0
20260904021200 80 215 4.0 7.0 0.00 0.00 0.00 79 1010.0
20260904021105 80 213 5.0 8.0 0.00 0.00 0.00 79 1010.0
20260904021008 80 207 5.0 8.0 0.00 0.00 0.00 79 1009.8
20260904020856 80 225 5.0 9.0 0.00 0.00 0.00 79 1009.9
20260904020821 80 217 5.0 9.0 0.00 0.00 0.00 79 1009.9
20260904020705 80 214 5.0 9.0 0.00 0.00 0.00 79 1009.9
20260904020608 80 215 5.0 9.0 0.00 0.00 0.00 79 1010.0
20260904020512 80 220 5.0 9.0 0.00 0.00 0.00 79 1010.0
20260904020356 80 212 5.0 9.0 0.00 0.00 0.00 78 1010.0
20260904020304 80 220 6.0 9.0 0.00 0.00 0.00 78 1010.0
20260904020229 80 217 6.0 9.0 0.00 0.00 0.00 78 1010.0
20260904020114 80 215 6.0 9.0 0.00 0.00 0.00 78 1010.0
20260904020019 81 225 5.0 8.0 0.00 0.00 0.00 78 1010.1
20260904015922 81 216 5.0 8.0 0.00 0.00 0.00 78 1010.1
20260904015807 81 211 5.0 8.0 0.00 0.00 0.00 78 1010.1
20260904015711 81 217 5.0 8.0 0.00 0.00 0.00 78 1010.1
20260904015600 81 202 5.0 8.0 0.00 0.00 0.00 78 1010.0
20260904015504 81 212 5.0 7.0 0.00 0.00 0.00 78 1010.0
20260904015409 81 208 5.0 7.0 0.00 0.00 0.00 78 1010.0
20260904015315 81 221 5.0 7.0 0.00 0.00 0.00 78 1010.1
20260904015219 81 220 5.0 7.0 0.00 0.00 0.00 78 1010.1
20260904015057 81 211 4.0 8.0 0.00 0.00 0.00 78 1010.1
20260904015007 81 218 4.0 8.0 0.00 0.00 0.00 78 1010.0
20260904014931 81 217 5.0 8.0 0.00 0.00 0.00 78 1010.0
20260904014815 81 232 5.0 8.0 0.00 0.00 0.00 78 1010.1
20260904014721 81 230 5.0 8.0 0.00 0.00 0.00 78 1010.0
20260904014558 81 223 4.0 7.0 0.00 0.00 0.00 78 1010.1
20260904014523 81 224 5.0 7.0 0.00 0.00 0.00 77 1010.1
20260904014407 81 231 5.0 7.0 0.00 0.00 0.00 77 1010.1
20260904014331 81 232 5.0 7.0 0.00 0.00 0.00 78 1010.1
20260904014200 81 235 4.0 7.0 0.00 0.00 0.00 78 1010.0
20260904014104 81 211 4.0 7.0 0.00 0.00 0.00 78 1010.1
20260904014009 81 210 5.0 7.0 0.00 0.00 0.00 77 1010.1
20260904013914 81 209 5.0 7.0 0.00 0.00 0.00 78 1010.2
20260904013819 81 216 5.0 8.0 0.00 0.00 0.00 77 1010.1
20260904013703 81 213 5.0 8.0 0.00 0.00 0.00 77 1010.1
20260904013612 81 209 5.0 8.0 0.00 0.00 0.00 77 1010.1
20260904013518 81 218 5.0 8.0 0.00 0.00 0.00 77 1010.1
20260904013355 81 202 5.0 8.0 0.00 0.00 0.00 77 1010.0
20260904013301 81 205 5.0 8.0 0.00 0.00 0.00 77 1010.0
20260904013226 81 202 5.0 8.0 0.00 0.00 0.00 77 1010.0
20260904013110 81 222 5.0 8.0 0.00 0.00 0.00 77 1010.0
20260904012958 81 201 5.0 8.0 0.00 0.00 0.00 77 1010.0
20260904012904 81 209 5.0 7.0 0.00 0.00 0.00 77 1010.0
20260904012808 81 204 5.0 7.0 0.00 0.00 0.00 77 1010.0
20260904012713 81 207 5.0 7.0 0.00 0.00 0.00 77 1009.9
20260904012619 81 211 4.0 7.0 0.00 0.00 0.00 77 1009.9
20260904012457 82 211 4.0 7.0 0.00 0.00 0.00 77 1009.9
20260904012426 82 211 4.0 7.0 0.00 0.00 0.00 77 1009.9
20260904012309 82 215 4.0 7.0 0.00 0.00 0.00 77 1009.9
20260904012214 82 209 4.0 7.0 0.00 0.00 0.00 77 1009.9
20260904012059 82 208 4.0 7.0 0.00 0.00 0.00 77 1009.9
20260904012004 82 208 4.0 7.0 0.00 0.00 0.00 77 1009.9
20260904011908 82 208 4.0 7.0 0.00 0.00 0.00 77 1009.9
20260904011756 82 208 5.0 7.0 0.00 0.00 0.00 76 1009.9
20260904011702 82 204 4.0 6.0 0.00 0.00 0.00 76 1009.8
20260904011626 82 198 4.0 6.0 0.00 0.00 0.00 76 1009.9
20260904011510 82 197 4.0 6.0 0.00 0.00 0.00 76 1009.9
20260904011355 82 196 5.0 6.0 0.00 0.00 0.00 76 1009.8
20260904011301 82 193 4.0 6.0 0.00 0.00 0.00 76 1009.9
20260904011226 82 193 4.0 6.0 0.00 0.00 0.00 76 1009.8
20260904011114 82 215 4.0 6.0 0.00 0.00 0.00 76 1009.8
20260904011019 82 215 4.0 6.0 0.00 0.00 0.00 76 1009.8
20260904010856 82 209 3.0 6.0 0.00 0.00 0.00 76 1009.8
20260904010801 82 208 3.0 6.0 0.00 0.00 0.00 76 1009.7
20260904010726 82 207 4.0 6.0 0.00 0.00 0.00 75 1009.8
20260904010609 82 207 4.0 6.0 0.00 0.00 0.00 75 1009.8
20260904010458 82 207 3.0 6.0 0.00 0.00 0.00 75 1009.7
20260904010403 82 224 4.0 6.0 0.00 0.00 0.00 75 1009.7
20260904010308 82 224 4.0 6.0 0.00 0.00 0.00 75 1009.7
20260904010213 82 226 4.0 6.0 0.00 0.00 0.00 75 1009.7
20260904010118 82 229 4.0 6.0 0.00 0.00 0.00 75 1009.7
20260904005955 82 232 4.0 6.0 0.00 0.00 0.00 75 1009.7
20260904005924 82 197 4.0 6.0 0.00 0.00 0.00 75 1009.7
20260904005808 82 219 3.0 6.0 0.00 0.00 0.00 75 1009.7
20260904005713 82 219 3.0 6.0 0.00 0.00 0.00 74 1009.7
20260904005558 82 218 5.0 6.0 0.00 0.00 0.00 74 1009.7
20260904005502 82 219 5.0 7.0 0.00 0.00 0.00 74 1009.6
20260904005428 82 217 5.0 7.0 0.00 0.00 0.00 74 1009.6
20260904005312 82 220 4.0 7.0 0.00 0.00 0.00 74 1009.6
20260904005242 82 212 4.0 7.0 0.00 0.00 0.00 74 1009.6
20260904005059 82 225 4.0 7.0 0.00 0.00 0.00 74 1009.6
20260904005003 82 224 4.0 7.0 0.00 0.00 0.00 74 1009.6
20260904004908 82 212 4.0 7.0 0.00 0.00 0.00 74 1009.6
20260904004813 82 212 5.0 7.0 0.00 0.00 0.00 74 1009.7
20260904004657 82 211 4.0 7.0 0.00 0.00 0.00 74 1009.6
20260904004606 82 223 4.0 7.0 0.00 0.00 0.00 74 1009.6
20260904004531 82 223 4.0 7.0 0.00 0.00 0.00 74 1009.6
20260904004435 82 211 3.0 7.0 0.00 0.00 0.00 74 1009.6
20260904004300 82 211 4.0 7.0 0.00 0.00 0.00 74 1009.6
20260904004204 82 211 4.0 7.0 0.00 0.00 0.00 74 1009.6
20260904004109 82 211 4.0 7.0 0.00 0.00 0.00 74 1009.6
20260904003958 83 215 4.0 7.0 0.00 0.00 0.00 74 1009.6
20260904003903 83 216 5.0 7.0 0.00 0.00 0.00 74 1009.6
20260904003808 82 231 4.0 7.0 0.00 0.00 0.00 74 1009.6
20260904003712 83 201 4.0 6.0 0.00 0.00 0.00 74 1009.6
20260904003557 83 216 4.0 6.0 0.00 0.00 0.00 74 1009.6
20260904003502 83 215 4.0 7.0 0.00 0.00 0.00 74 1009.6
20260904003427 83 215 4.0 7.0 0.00 0.00 0.00 74 1009.6
20260904003255 83 216 4.0 7.0 0.00 0.00 0.00 74 1009.6
20260904003200 83 215 5.0 7.0 0.00 0.00 0.00 74 1009.5
20260904003105 83 214 5.0 7.0 0.00 0.00 0.00 74 1009.6
20260904003010 83 225 5.0 7.0 0.00 0.00 0.00 74 1009.6
20260904002855 83 198 4.0 7.0 0.00 0.00 0.00 73 1009.6
20260904002805 83 194 4.0 7.0 0.00 0.00 0.00 73 1009.6
20260904002730 83 217 5.0 7.0 0.00 0.00 0.00 73 1009.6
20260904002614 83 215 5.0 7.0 0.00 0.00 0.00 73 1009.6
20260904002458 83 221 4.0 7.0 0.00 0.00 0.00 73 1009.5
20260904002402 83 196 4.0 7.0 0.00 0.00 0.00 73 1009.6
20260904002328 83 222 5.0 7.0 0.00 0.00 0.00 73 1009.6
20260904002231 83 215 5.0 7.0 0.00 0.00 0.00 73 1009.6
20260904002059 83 210 5.0 7.0 0.00 0.00 0.00 73 1009.6
20260904002003 83 216 5.0 7.0 0.00 0.00 0.00 73 1009.6
20260904001909 83 218 5.0 7.0 0.00 0.00 0.00 73 1009.6
20260904001813 83 219 5.0 8.0 0.00 0.00 0.00 73 1009.6
20260904001718 83 198 4.0 8.0 0.00 0.00 0.00 72 1009.6
20260904001602 83 215 4.0 8.0 0.00 0.00 0.00 72 1009.6
20260904001506 83 214 4.0 10.0 0.00 0.00 0.00 72 1009.7
20260904001415 83 213 5.0 10.0 0.00 0.00 0.00 72 1009.7
20260904001259 83 246 5.0 10.0 0.00 0.00 0.00 72 1009.6
20260904001205 83 223 5.0 10.0 0.00 0.00 0.00 72 1009.5
20260904001109 83 236 5.0 10.0 0.00 0.00 0.00 72 1009.5
20260904001014 83 220 6.0 10.0 0.00 0.00 0.00 72 1009.6
20260904000903 83 219 5.0 10.0 0.00 0.00 0.00 72 1009.5
20260904000808 83 227 6.0 10.0 0.00 0.00 0.00 72 1009.5
20260904000713 83 252 8.0 10.0 0.00 0.00 0.00 72 1009.6
20260904000640 83 223 6.0 10.0 0.00 0.00 0.00 72 1009.6
20260904000456 83 236 4.0 10.0 0.00 0.00 0.00 72 1009.6
20260904000421 83 217 5.0 10.0 0.00 0.00 0.00 72 1009.6
20260904000305 83 250 5.0 10.0 0.00 0.00 0.00 71 1009.6
20260904000214 83 224 5.0 10.0 0.00 0.00 0.00 72 1009.6
20260904000119 83 211 5.0 10.0 0.00 0.00 0.00 72 1009.5
20260903235955 83 223 5.0 10.0 0.00 0.00 0.00 71 1009.6
20260903235900 83 238 5.0 10.0 0.00 0.00 0.00 71 1009.5
20260903235804 83 232 5.0 10.0 0.00 0.00 0.00 71 1009.5
20260903235729 83 223 6.0 10.0 0.00 0.00 0.00 71 1009.5
20260903235557 84 245 8.0 10.0 0.00 0.00 0.00 71 1009.5
20260903235502 84 219 7.0 11.0 0.00 0.00 0.00 71 1009.5
20260903235408 84 227 5.0 11.0 0.00 0.00 0.00 71 1009.5
20260903235312 84 238 5.0 11.0 0.00 0.00 0.00 71 1009.5
20260903235217 84 225 8.0 11.0 0.00 0.00 0.00 71 1009.6
20260903235101 84 221 8.0 11.0 0.00 0.00 0.00 71 1009.5
20260903235007 84 234 7.0 11.0 0.00 0.00 0.00 71 1009.6
20260903234855 84 256 7.0 11.0 0.00 0.00 0.00 71 1009.5
20260903234800 84 252 9.0 11.0 0.00 0.00 0.00 71 1009.5
20260903234706 84 246 8.0 11.0 0.00 0.00 0.00 70 1009.5
20260903234610 84 260 8.0 11.0 0.00 0.00 0.00 70 1009.5
20260903234535 84 206 7.0 10.0 0.00 0.00 0.00 70 1009.5
20260903234359 84 217 8.0 10.0 0.00 0.00 0.00 70 1009.4
20260903234308 84 218 8.0 10.0 0.00 0.00 0.00 70 1009.4
20260903234213 84 223 7.0 11.0 0.00 0.00 0.00 70 1009.3
20260903234118 84 238 5.0 13.0 0.00 0.00 0.00 70 1009.4
20260903234002 84 248 5.0 13.0 0.00 0.00 0.00 70 1009.3
20260903233926 84 236 5.0 13.0 0.00 0.00 0.00 70 1009.3
20260903233810 84 252 6.0 13.0 0.00 0.00 0.00 70 1009.3
20260903233731 84 239 7.0 13.0 0.00 0.00 0.00 70 1009.3
20260903233559 84 208 7.0 13.0 0.00 0.00 0.00 69 1009.2
20260903233504 84 227 8.0 14.0 0.00 0.00 0.00 69 1009.2
20260903233410 84 217 8.0 14.0 0.00 0.00 0.00 69 1009.2
20260903233314 84 209 8.0 14.0 0.00 0.00 0.00 69 1009.2
20260903233159 84 242 7.0 15.0 0.00 0.00 0.00 69 1009.3
20260903233104 84 205 8.0 16.0 0.00 0.00 0.00 69 1009.2
20260903233013 85 234 9.0 16.0 0.00 0.00 0.00 69 1009.2
20260903232919 85 237 8.0 16.0 0.00 0.00 0.00 69 1009.2
20260903232756 85 229 10.0 16.0 0.00 0.00 0.00 68 1009.1
20260903232721 85 225 10.0 16.0 0.00 0.00 0.00 68 1009.1
20260903232558 85 235 10.0 16.0 0.00 0.00 0.00 68 1009.1
20260903232503 85 264 12.0 16.0 0.00 0.00 0.00 68 1009.1
20260903232413 85 232 11.0 16.0 0.00 0.00 0.00 68 1009.1
20260903232337 85 252 8.0 16.0 0.00 0.00 0.00 68 1009.1
20260903232242 85 246 9.0 16.0 0.00 0.00 0.00 68 1009.1
20260903232058 85 229 9.0 16.0 0.00 0.00 0.00 68 1009.1
20260903232003 85 235 10.0 16.0 0.00 0.00 0.00 68 1009.0
20260903231927 85 212 10.0 16.0 0.00 0.00 0.00 68 1009.1
20260903231811 85 233 8.0 16.0 0.00 0.00 0.00 68 1009.1
20260903231659 85 236 9.0 16.0 0.00 0.00 0.00 68 1009.0
20260903231604 85 257 8.0 16.0 0.00 0.00 0.00 68 1009.1
20260903231510 85 228 8.0 15.0 0.00 0.00 0.00 68 1009.1
20260903231434 85 243 9.0 15.0 0.00 0.00 0.00 68 1009.1
20260903231318 85 192 10.0 15.0 0.00 0.00 0.00 68 1009.1
20260903231156 85 261 9.0 15.0 0.00 0.00 0.00 67 1009.0
20260903231121 85 250 10.0 15.0 0.00 0.00 0.00 67 1009.1
20260903231010 85 236 12.0 15.0 0.00 0.00 0.00 67 1009.1
20260903230914 85 244 11.0 15.0 0.00 0.00 0.00 67 1009.0
20260903230818 85 208 7.0 13.0 0.00 0.00 0.00 68 1009.0
20260903230702 85 215 7.0 13.0 0.00 0.00 0.00 68 1009.0
20260903230627 85 213 9.0 13.0 0.00 0.00 0.00 68 1009.0
20260903230510 85 209 10.0 13.0 0.00 0.00 0.00 67 1009.0
20260903230359 85 207 10.0 14.0 0.00 0.00 0.00 68 1008.9
20260903230304 85 236 10.0 14.0 0.00 0.00 0.00 67 1008.9
20260903230208 85 234 10.0 14.0 0.00 0.00 0.00 67 1008.9
20260903230131 85 216 9.0 14.0 0.00 0.00 0.00 67 1008.9
20260903225956 85 199 8.0 12.0 0.00 0.00 0.00 68 1009.0
20260903225900 85 208 8.0 12.0 0.00 0.00 0.00 67 1009.0
20260903225804 85 255 7.0 12.0 0.00 0.00 0.00 68 1009.1
20260903225734 85 211 8.0 12.0 0.00 0.00 0.00 68 1009.1
20260903225558 85 233 7.0 12.0 0.00 0.00 0.00 68 1009.0
20260903225502 85 254 5.0 12.0 0.00 0.00 0.00 68 1009.1
20260903225426 85 250 5.0 12.0 0.00 0.00 0.00 69 1009.0
20260903225310 85 235 5.0 12.0 0.00 0.00 0.00 68 1009.0
20260903225155 85 248 8.0 12.0 0.00 0.00 0.00 68 1009.0
20260903225104 85 272 8.0 12.0 0.00 0.00 0.00 68 1009.1
20260903225009 85 219 7.0 12.0 0.00 0.00 0.00 68 1009.1
20260903224914 85 205 8.0 12.0 0.00 0.00 0.00 68 1009.1
20260903224819 85 196 8.0 12.0 0.00 0.00 0.00 68 1009.1
20260903224703 85 216 7.0 12.0 0.00 0.00 0.00 68 1009.1
20260903224608 85 240 6.0 12.0 0.00 0.00 0.00 68 1009.1
20260903224457 85 211 5.0 12.0 0.00 0.00 0.00 68 1009.2
20260903224402 85 237 7.0 12.0 0.00 0.00 0.00 68 1009.2
20260903224307 85 247 8.0 12.0 0.00 0.00 0.00 68 1009.2
20260903224212 85 239 8.0 12.0 0.00 0.00 0.00 68 1009.2
20260903224117 85 228 9.0 13.0 0.00 0.00 0.00 68 1009.2
20260903224001 85 246 9.0 12.0 0.00 0.00 0.00 67 1009.2
20260903223907 85 223 7.0 12.0 0.00 0.00 0.00 68 1009.2
20260903223755 85 248 7.0 12.0 0.00 0.00 0.00 68 1009.1
20260903223721 85 233 8.0 12.0 0.00 0.00 0.00 68 1009.1
20260903223558 85 245 8.0 12.0 0.00 0.00 0.00 68 1009.2
20260903223523 85 250 6.0 17.0 0.00 0.00 0.00 68 1009.2
20260903223407 85 234 4.0 17.0 0.00 0.00 0.00 69 1009.2
20260903223312 85 298 6.0 17.0 0.00 0.00 0.00 69 1009.2
20260903223201 85 247 6.0 17.0 0.00 0.00 0.00 69 1009.2
20260903223105 85 200 6.0 17.0 0.00 0.00 0.00 69 1009.2
20260903223009 85 249 7.0 17.0 0.00 0.00 0.00 70 1009.2
20260903222914 85 209 9.0 17.0 0.00 0.00 0.00 69 1009.1
20260903222759 85 206 11.0 17.0 0.00 0.00 0.00 71 1009.2
20260903222705 85 208 10.0 17.0 0.00 0.00 0.00 70 1009.2
20260903222613 85 279 8.0 17.0 0.00 0.00 0.00 72 1009.2
20260903222539 85 208 6.0 16.0 0.00 0.00 0.00 72 1009.2
20260903222356 85 202 7.0 16.0 0.00 0.00 0.00 71 1009.2
20260903222305 85 231 7.0 16.0 0.00 0.00 0.00 70 1009.1
20260903222228 85 236 5.0 10.0 0.00 0.00 0.00 70 1009.1
20260903222131 85 203 5.0 10.0 0.00 0.00 0.00 72 1009.1
20260903222035 85 236 7.0 12.0 0.00 0.00 0.00 72 1009.2
20260903221903 85 210 8.0 12.0 0.00 0.00 0.00 72 1009.2
20260903221807 85 227 8.0 12.0 0.00 0.00 0.00 72 1009.2
20260903221711 85 202 9.0 12.0 0.00 0.00 0.00 72 1009.2
20260903221617 85 210 8.0 12.0 0.00 0.00 0.00 72 1009.2
20260903221540 85 211 9.0 12.0 0.00 0.00 0.00 72 1009.2
20260903221357 85 225 9.0 12.0 0.00 0.00 0.00 72 1009.2
20260903221302 85 221 9.0 12.0 0.00 0.00 0.00 72 1009.3
20260903221230 84 201 9.0 13.0 0.00 0.00 0.00 73 1009.3
20260903221114 84 207 9.0 12.0 0.00 0.00 0.00 72 1009.3
20260903220959 84 217 10.0 12.0 0.00 0.00 0.00 72 1009.3
20260903220924 84 202 11.0 14.0 0.00 0.00 0.00 73 1009.2
20260903220808 84 240 9.0 14.0 0.00 0.00 0.00 73 1009.2
20260903220713 84 224 9.0 14.0 0.00 0.00 0.00 73 1009.2
20260903220602 85 244 8.0 14.0 0.00 0.00 0.00 72 1009.2
20260903220507 85 254 6.0 14.0 0.00 0.00 0.00 73 1009.2
20260903220412 85 231 7.0 14.0 0.00 0.00 0.00 74 1009.2
20260903220317 85 234 8.0 14.0 0.00 0.00 0.00 73 1009.2
20260903220221 85 219 7.0 12.0 0.00 0.00 0.00 74 1009.1
20260903220057 85 241 8.0 13.0 0.00 0.00 0.00 74 1009.1
20260903220023 84 242 8.0 13.0 0.00 0.00 0.00 73 1009.0
20260903215910 84 213 6.0 13.0 0.00 0.00 0.00 74 1009.0
20260903215755 84 220 6.0 17.0 0.00 0.00 0.00 74 1009.0
20260903215700 84 218 8.0 17.0 0.00 0.00 0.00 73 1009.1
20260903215604 84 265 9.0 17.0 0.00 0.00 0.00 73 1009.0
20260903215510 84 257 9.0 18.0 0.00 0.00 0.00 73 1009.0
20260903215414 84 223 9.0 18.0 0.00 0.00 0.00 74 1009.1
20260903215306 84 221 10.0 18.0 0.00 0.00 0.00 74 1009.0
20260903215207 84 212 10.0 18.0 0.00 0.00 0.00 74 1009.1
20260903215111 84 230 10.0 18.0 0.00 0.00 0.00 74 1009.1
20260903215036 84 228 11.0 18.0 0.00 0.00 0.00 74 1009.1
20260903214859 84 223 12.0 18.0 0.00 0.00 0.00 74 1009.1
20260903214804 84 219 13.0 18.0 0.00 0.00 0.00 74 1009.1
20260903214729 84 217 13.0 18.0 0.00 0.00 0.00 74 1009.1
20260903214556 84 244 9.0 15.0 0.00 0.00 0.00 75 1009.2
20260903214501 83 210 9.0 15.0 0.00 0.00 0.00 76 1009.1
20260903214405 83 224 10.0 15.0 0.00 0.00 0.00 75 1009.1
20260903214309 83 212 10.0 15.0 0.00 0.00 0.00 75 1009.1
20260903214214 83 203 10.0 15.0 0.00 0.00 0.00 75 1009.1
20260903214057 83 205 10.0 15.0 0.00 0.00 0.00 75 1009.1
20260903214007 83 227 10.0 15.0 0.00 0.00 0.00 75 1009.2
20260903213911 83 227 11.0 15.0 0.00 0.00 0.00 75 1009.2
20260903213836 83 240 9.0 16.0 0.00 0.00 0.00 76 1009.1
20260903213737 83 224 8.0 16.0 0.00 0.00 0.00 76 1009.2
20260903213641 83 224 8.0 16.0 0.00 0.00 0.00 76 1009.2
20260903213458 82 209 8.0 16.0 0.00 0.00 0.00 76 1009.3
20260903213422 82 251 8.0 16.0 0.00 0.00 0.00 76 1009.4
20260903213326 82 225 9.0 16.0 0.00 0.00 0.00 77 1009.3
20260903213229 82 223 10.0 16.0 0.00 0.00 0.00 76 1009.3
20260903213057 82 234 9.0 16.0 0.00 0.00 0.00 77 1009.3
20260903213002 82 216 9.0 16.0 0.00 0.00 0.00 76 1009.3
20260903212906 82 215 8.0 15.0 0.00 0.00 0.00 77 1009.3
20260903212810 81 198 9.0 15.0 0.00 0.00 0.00 76 1009.3
20260903212655 81 234 10.0 15.0 0.00 0.00 0.00 77 1009.3
20260903212604 81 221 9.0 15.0 0.00 0.00 0.00 77 1009.3
20260903212509 81 220 8.0 15.0 0.00 0.00 0.00 77 1009.3
20260903212414 81 221 8.0 15.0 0.00 0.00 0.00 77 1009.4
20260903212259 81 234 10.0 15.0 0.00 0.00 0.00 77 1009.4
20260903212204 81 212 10.0 15.0 0.00 0.00 0.00 76 1009.4
20260903212109 81 221 10.0 15.0 0.00 0.00 0.00 77 1009.4
20260903212018 81 239 9.0 15.0 0.00 0.00 0.00 76 1009.4
20260903211856 81 242 9.0 15.0 0.00 0.00 0.00 76 1009.4
20260903211801 81 241 9.0 15.0 0.00 0.00 0.00 76 1009.4
20260903211727 81 225 9.0 15.0 0.00 0.00 0.00 76 1009.5
20260903211610 81 210 9.0 15.0 0.00 0.00 0.00 76 1009.5
20260903211455 81 228 10.0 15.0 0.00 0.00 0.00 76 1009.5
20260903211404 81 234 10.0 15.0 0.00 0.00 0.00 76 1009.5
20260903211309 81 222 9.0 15.0 0.00 0.00 0.00 76 1009.5
20260903211214 81 223 10.0 18.0 0.00 0.00 0.00 76 1009.5
20260903211139 81 238 11.0 18.0 0.00 0.00 0.00 76 1009.5
20260903210956 81 225 9.0 18.0 0.00 0.00 0.00 77 1009.5
20260903210900 81 208 8.0 18.0 0.00 0.00 0.00 77 1009.4
20260903210805 81 214 9.0 18.0 0.00 0.00 0.00 77 1009.4
20260903210714 81 229 9.0 18.0 0.00 0.00 0.00 77 1009.4
20260903210619 81 219 9.0 18.0 0.00 0.00 0.00 76 1009.4
20260903210456 81 194 10.0 18.0 0.00 0.00 0.00 76 1009.5
20260903210401 81 207 9.0 17.0 0.00 0.00 0.00 77 1009.6
20260903210306 81 188 9.0 16.0 0.00 0.00 0.00 76 1009.5
20260903210231 81 227 9.0 16.0 0.00 0.00 0.00 76 1009.5
20260903210120 81 208 10.0 16.0 0.00 0.00 0.00 76 1009.6
20260903210023 81 209 10.0 16.0 0.00 0.00 0.00 76 1009.6
20260903205908 81 231 10.0 16.0 0.00 0.00 0.00 76 1009.6
20260903205813 81 213 10.0 16.0 0.00 0.00 0.00 76 1009.7
20260903205656 81 214 9.0 16.0 0.00 0.00 0.00 76 1009.6
20260903205601 81 221 9.0 16.0 0.00 0.00 0.00 76 1009.6
20260903205506 81 213 10.0 16.0 0.00 0.00 0.00 76 1009.7
20260903205355 81 244 10.0 16.0 0.00 0.00 0.00 76 1009.7
20260903205301 81 225 9.0 16.0 0.00 0.00 0.00 77 1009.7
20260903205205 81 194 10.0 16.0 0.00 0.00 0.00 76 1009.7
20260903205110 81 219 12.0 16.0 0.00 0.00 0.00 76 1009.7
20260903205034 81 201 11.0 17.0 0.00 0.00 0.00 75 1009.7
20260903204917 81 205 9.0 17.0 0.00 0.00 0.00 75 1009.7
20260903204821 81 211 9.0 17.0 0.00 0.00 0.00 75 1009.7
20260903204709 81 240 9.0 17.0 0.00 0.00 0.00 75 1009.7
20260903204614 81 205 10.0 17.0 0.00 0.00 0.00 75 1009.7
20260903204459 81 220 12.0 17.0 0.00 0.00 0.00 74 1009.7
20260903204424 82 209 12.0 17.0 0.00 0.00 0.00 74 1009.7
20260903204308 82 227 10.0 17.0 0.00 0.00 0.00 74 1009.7
20260903204233 82 223 10.0 16.0 0.00 0.00 0.00 74 1009.7
20260903204117 82 200 9.0 15.0 0.00 0.00 0.00 74 1009.8
20260903204005 82 238 8.0 15.0 0.00 0.00 0.00 75 1009.8
20260903203910 82 234 9.0 15.0 0.00 0.00 0.00 74 1009.8
20260903203756 82 223 10.0 15.0 0.00 0.00 0.00 73 1009.8
20260903203720 82 221 8.0 14.0 0.00 0.00 0.00 74 1009.8
20260903203603 82 232 6.0 10.0 0.00 0.00 0.00 74 1009.8
20260903203508 82 228 6.0 10.0 0.00 0.00 0.00 75 1009.8
20260903203357 82 232 5.0 13.0 0.00 0.00 0.00 74 1009.9
20260903203302 82 227 6.0 13.0 0.00 0.00 0.00 74 1009.9
20260903203207 82 236 8.0 13.0 0.00 0.00 0.00 73 1009.9
20260903203112 82 206 9.0 13.0 0.00 0.00 0.00 74 1009.9
20260903202958 82 240 7.0 13.0 0.00 0.00 0.00 74 1010.0
20260903202902 82 244 7.0 13.0 0.00 0.00 0.00 73 1010.0
20260903202810 82 273 9.0 13.0 0.00 0.00 0.00 73 1010.0
20260903202655 82 222 10.0 13.0 0.00 0.00 0.00 73 1010.1
20260903202600 82 192 8.0 11.0 0.00 0.00 0.00 73 1010.2
20260903202505 83 203 7.0 11.0 0.00 0.00 0.00 73 1010.1
20260903202410 82 207 7.0 11.0 0.00 0.00 0.00 73 1010.1
20260903202259 82 193 7.0 12.0 0.00 0.00 0.00 73 1010.2
20260903202224 82 202 6.0 11.0 0.00 0.00 0.00 73 1010.3
20260903202107 82 229 5.0 14.0 0.00 0.00 0.00 73 1010.3
20260903202032 82 221 6.0 14.0 0.00 0.00 0.00 73 1010.3
20260903201857 82 240 8.0 14.0 0.00 0.00 0.00 72 1010.2
20260903201801 82 243 8.0 14.0 0.00 0.00 0.00 73 1010.2
20260903201726 82 184 8.0 14.0 0.00 0.00 0.00 72 1010.2
20260903201609 82 208 7.0 14.0 0.00 0.00 0.00 73 1010.2
20260903201518 82 219 6.0 14.0 0.00 0.00 0.00 73 1010.1
20260903201356 82 206 9.0 14.0 0.00 0.00 0.00 73 1010.2
20260903201300 82 227 10.0 14.0 0.00 0.00 0.00 72 1010.2
20260903201206 82 189 10.0 13.0 0.00 0.00 0.00 71 1010.3
20260903201109 82 190 9.0 14.0 0.00 0.00 0.00 71 1010.3
20260903200959 82 186 8.0 12.0 0.00 0.00 0.00 72 1010.2
20260903200904 82 221 8.0 12.0 0.00 0.00 0.00 72 1010.2
20260903200808 82 234 9.0 12.0 0.00 0.00 0.00 72 1010.2
20260903200713 83 227 10.0 14.0 0.00 0.00 0.00 71 1010.3
20260903200618 83 225 10.0 13.0 0.00 0.00 0.00 71 1010.3
20260903200456 83 221 9.0 13.0 0.00 0.00 0.00 71 1010.2
20260903200405 83 223 7.0 13.0 0.00 0.00 0.00 73 1010.2
20260903200309 83 202 8.0 13.0 0.00 0.00 0.00 72 1010.2
20260903200215 83 232 9.0 13.0 0.00 0.00 0.00 71 1010.1
20260903200059 83 234 8.0 13.0 0.00 0.00 0.00 71 1010.1
20260903200004 83 209 9.0 13.0 0.00 0.00 0.00 71 1010.1
20260903195909 83 213 10.0 13.0 0.00 0.00 0.00 71 1010.1
20260903195818 83 217 9.0 15.0 0.00 0.00 0.00 72 1010.1
20260903195656 83 252 8.0 15.0 0.00 0.00 0.00 71 1010.3
20260903195620 83 195 8.0 15.0 0.00 0.00 0.00 71 1010.3
20260903195504 83 233 9.0 15.0 0.00 0.00 0.00 71 1010.2
20260903195409 83 266 9.0 15.0 0.00 0.00 0.00 72 1010.2
20260903195314 83 214 9.0 15.0 0.00 0.00 0.00 71 1010.2
20260903195202 83 219 10.0 15.0 0.00 0.00 0.00 71 1010.2
20260903195107 83 212 9.0 15.0 0.00 0.00 0.00 71 1010.2
20260903195013 83 213 7.0 11.0 0.00 0.00 0.00 73 1010.2
20260903194917 83 236 6.0 12.0 0.00 0.00 0.00 73 1010.3
20260903194821 83 230 6.0 12.0 0.00 0.00 0.00 72 1010.4
20260903194725 83 238 7.0 12.0 0.00 0.00 0.00 71 1010.4
20260903194607 83 263 9.0 12.0 0.00 0.00 0.00 71 1010.5
20260903194455 83 273 7.0 12.0 0.00 0.00 0.00 71 1010.5
20260903194400 83 224 7.0 12.0 0.00 0.00 0.00 72 1010.6
20260903194304 83 215 7.0 15.0 0.00 0.00 0.00 74 1010.6
20260903194209 83 246 8.0 15.0 0.00 0.00 0.00 72 1010.6
20260903194115 83 244 8.0 15.0 0.00 0.00 0.00 72 1010.6
20260903193959 83 254 8.0 15.0 0.00 0.00 0.00 74 1010.7
20260903193908 83 264 8.0 15.0 0.00 0.00 0.00 73 1010.7
20260903193813 82 215 8.0 15.0 0.00 0.00 0.00 73 1010.6
20260903193718 82 240 8.0 15.0 0.00 0.00 0.00 73 1010.7
20260903193556 82 227 9.0 15.0 0.00 0.00 0.00 74 1010.6
20260903193501 82 223 8.0 15.0 0.00 0.00 0.00 74 1010.7
20260903193406 82 223 6.0 10.0 0.00 0.00 0.00 75 1010.7
20260903193315 82 213 5.0 10.0 0.00 0.00 0.00 75 1010.7
20260903193159 82 221 5.0 10.0 0.00 0.00 0.00 76 1010.6
20260903193103 82 231 7.0 10.0 0.00 0.00 0.00 75 1010.6
20260903193007 81 207 7.0 10.0 0.00 0.00 0.00 75 1010.6
20260903192912 81 253 6.0 10.0 0.00 0.00 0.00 76 1010.6
20260903192757 81 223 6.0 8.0 0.00 0.00 0.00 76 1010.5
20260903192726 81 208 6.0 8.0 0.00 0.00 0.00 78 1010.5
20260903192610 81 204 6.0 8.0 0.00 0.00 0.00 78 1010.5
20260903192534 81 209 5.0 8.0 0.00 0.00 0.00 78 1010.6
20260903192418 80 212 4.0 6.0 0.00 0.00 0.00 79 1010.7
20260903192306 80 221 4.0 6.0 0.00 0.00 0.00 79 1010.6
20260903192207 80 238 4.0 6.0 0.00 0.00 0.00 79 1010.6
20260903192112 80 239 3.0 6.0 0.00 0.00 0.00 80 1010.6
20260903192001 79 181 3.0 5.0 0.00 0.00 0.00 79 1010.6
20260903191906 79 179 4.0 5.0 0.00 0.00 0.00 79 1010.5
20260903191831 79 211 3.0 5.0 0.00 0.00 0.00 78 1010.5
20260903191655 79 211 3.0 5.0 0.00 0.00 0.00 79 1010.5
20260903191600 79 211 3.0 5.0 0.00 0.00 0.00 79 1010.5
20260903191505 79 205 3.0 5.0 0.00 0.00 0.00 79 1010.5
20260903191410 79 222 3.0 5.0 0.00 0.00 0.00 79 1010.5
20260903191318 79 225 3.0 5.0 0.00 0.00 0.00 79 1010.5
20260903191156 79 225 2.0 7.0 0.00 0.00 0.00 79 1010.6
20260903191120 79 225 2.0 7.0 0.00 0.00 0.00 79 1010.6
20260903190958 79 225 2.0 7.0 0.00 0.00 0.00 79 1010.6
20260903190902 79 224 3.0 7.0 0.00 0.00 0.00 79 1010.5
20260903190826 79 224 3.0 7.0 0.00 0.00 0.00 79 1010.5
20260903190715 79 250 3.0 7.0 0.00 0.00 0.00 78 1010.5
20260903190559 79 258 2.0 8.0 0.00 0.00 0.00 79 1010.6
20260903190503 79 259 3.0 8.0 0.00 0.00 0.00 78 1010.6
20260903190408 79 257 4.0 8.0 0.00 0.00 0.00 78 1010.6
20260903190313 79 252 3.0 8.0 0.00 0.00 0.00 79 1010.6
20260903190159 79 239 3.0 8.0 0.00 0.00 0.00 78 1010.6
20260903190107 79 240 3.0 8.0 0.00 0.00 0.00 79 1010.6
20260903190012 79 234 4.0 8.0 0.00 0.00 0.00 79 1010.5
20260903185917 79 225 4.0 8.0 0.00 0.00 0.00 78 1010.5
20260903185801 79 240 4.0 8.0 0.00 0.00 0.00 78 1010.5
20260903185702 79 236 4.0 8.0 0.00 0.00 0.00 78 1010.5
20260903185627 80 244 4.0 8.0 0.00 0.00 0.00 78 1010.4
20260903185511 80 225 4.0 8.0 0.00 0.00 0.00 78 1010.4
20260903185359 80 236 5.0 8.0 0.00 0.00 0.00 78 1010.5
20260903185306 80 247 5.0 8.0 0.00 0.00 0.00 77 1010.6
20260903185207 80 236 4.0 7.0 0.00 0.00 0.00 77 1010.6
20260903185131 80 216 4.0 9.0 0.00 0.00 0.00 77 1010.6
20260903184955 80 259 4.0 9.0 0.00 0.00 0.00 77 1010.6
20260903184900 80 251 5.0 10.0 0.00 0.00 0.00 77 1010.6
20260903184809 80 252 4.0 10.0 0.00 0.00 0.00 77 1010.6
20260903184714 80 225 4.0 10.0 0.00 0.00 0.00 78 1010.5
20260903184559 80 246 4.0 10.0 0.00 0.00 0.00 77 1010.6
20260903184504 80 230 5.0 10.0 0.00 0.00 0.00 76 1010.5
20260903184410 80 232 5.0 14.0 0.00 0.00 0.00 75 1010.5
20260903184259 81 252 5.0 14.0 0.00 0.00 0.00 75 1010.6
20260903184223 81 232 6.0 14.0 0.00 0.00 0.00 74 1010.6
20260903184127 81 252 6.0 14.0 0.00 0.00 0.00 74 1010.6
20260903184030 81 254 5.0 14.0 0.00 0.00 0.00 74 1010.6
20260903183915 82 229 5.0 15.0 0.00 0.00 0.00 73 1010.5
20260903183759 82 236 8.0 16.0 0.00 0.00 0.00 72 1010.6
20260903183705 82 253 9.0 16.0 0.00 0.00 0.00 70 1010.6
20260903183608 82 225 8.0 16.0 0.00 0.00 0.00 70 1010.5
20260903183535 83 256 7.0 16.0 0.00 0.00 0.00 71 1010.5
20260903183359 83 229 7.0 16.0 0.00 0.00 0.00 69 1010.7
20260903183323 83 227 8.0 16.0 0.00 0.00 0.00 68 1010.6
20260903183227 84 250 9.0 16.0 0.00 0.00 0.00 67 1010.6
20260903183110 84 241 10.0 16.0 0.00 0.00 0.00 66 1010.6
20260903182956 85 238 9.0 16.0 0.00 0.00 0.00 65 1010.5
20260903182900 85 254 9.0 16.0 0.00 0.00 0.00 65 1010.4
20260903182808 85 220 9.0 14.0 0.00 0.00 0.00 64 1010.4
20260903182713 85 242 10.0 14.0 0.00 0.00 0.00 64 1010.5
20260903182558 85 265 10.0 14.0 0.00 0.00 0.00 63 1010.4
20260903182503 85 240 10.0 14.0 0.00 0.00 0.00 63 1010.5
20260903182427 85 266 9.0 14.0 0.00 0.00 0.00 63 1010.6
20260903182330 86 271 9.0 17.0 0.00 0.00 0.00 62 1010.6
20260903182159 86 260 7.0 17.0 0.00 0.00 0.00 63 1010.6
20260903182103 86 268 6.0 18.0 0.00 0.00 0.00 62 1010.7
20260903182008 86 248 8.0 18.0 0.00 0.00 0.00 62 1010.7